FW9986 Weather Reports


time (UTC)temp
C
wind
direction
speed
KPH
gust
KPH
rain 1hr
cm
rain 24hr
cm
rain mn
cm
humidity
%
barometer
mb
20260506134904 12 359 1.6 9.7 0.00 0.00 0.00 77 1011.6
20260506134803 12 349 1.6 9.7 0.00 0.00 0.00 77 1011.5
20260506134703 12 353 1.6 9.7 0.00 0.00 0.00 77 1011.5
20260506134603 12 33 1.6 9.7 0.00 0.00 0.00 77 1011.7
20260506134515 12 33 1.6 9.7 0.00 0.00 0.00 77 1011.7
20260506134504 12 52 1.6 4.8 0.00 0.00 0.00 77 1011.7
20260506134403 12 73 1.6 4.8 0.00 0.00 0.00 77 1011.5
20260506134215 12 58 1.6 4.8 0.00 0.00 0.00 77 1011.6
20260506134203 12 118 1.6 4.8 0.00 0.00 0.00 77 1011.7
20260506134114 12 118 1.6 4.8 0.00 0.00 0.00 77 1011.7
20260506134103 12 98 1.6 4.8 0.00 0.00 0.00 77 1011.6
20260506133803 12 130 1.6 4.8 0.00 0.00 0.00 77 1011.5
20260506133713 12 130 1.6 4.8 0.00 0.00 0.00 77 1011.5
20260506133703 12 131 1.6 6.4 0.00 0.00 0.00 77 1011.7
20260506133604 12 123 1.6 6.4 0.00 0.00 0.00 76 1011.7
20260506133515 12 123 1.6 6.4 0.00 0.00 0.00 76 1011.7
20260506133403 12 122 1.6 6.4 0.00 0.00 0.00 76 1011.5
20260506133318 12 122 1.6 6.4 0.00 0.00 0.00 76 1011.5
20260506133203 12 58 1.6 6.4 0.00 0.00 0.00 76 1011.8
20260506133003 12 25 1.6 6.4 0.00 0.00 0.00 75 1011.7
20260506132904 12 15 1.6 6.4 0.00 0.00 0.00 75 1011.6
20260506132803 12 2 1.6 6.4 0.00 0.00 0.00 75 1011.5
20260506132704 12 357 1.6 6.4 0.00 0.00 0.00 75 1011.5
20260506132603 12 356 1.6 6.4 0.00 0.00 0.00 75 1011.6
20260506132503 12 347 1.6 4.8 0.00 0.00 0.00 75 1011.6
20260506132403 12 345 1.6 4.8 0.00 0.00 0.00 75 1011.4
20260506132306 12 346 1.6 4.8 0.00 0.00 0.00 75 1011.5
20260506132204 12 346 1.6 4.8 0.00 0.00 0.00 75 1011.5
20260506132104 12 358 1.6 4.8 0.00 0.00 0.00 75 1011.5
20260506132003 12 1 1.6 6.4 0.00 0.00 0.00 75 1011.6
20260506131913 12 1 1.6 6.4 0.00 0.00 0.00 75 1011.6
20260506131903 12 3 1.6 6.4 0.00 0.00 0.00 75 1011.6
20260506131803 12 7 1.6 6.4 0.00 0.00 0.00 74 1011.4
20260506131604 12 6 1.6 6.4 0.00 0.00 0.00 74 1011.5
20260506131503 12 6 1.6 6.4 0.00 0.00 0.00 74 1011.5
20260506131403 12 12 1.6 6.4 0.00 0.00 0.00 74 1011.6
20260506131304 12 19 1.6 6.4 0.00 0.00 0.00 74 1011.6
20260506131203 12 6 1.6 6.4 0.00 0.00 0.00 74 1011.6
20260506131103 12 359 1.6 6.4 0.00 0.00 0.00 74 1011.5
20260506131004 12 358 1.6 6.4 0.00 0.00 0.00 74 1011.6
20260506130904 12 351 1.6 6.4 0.00 0.00 0.00 75 1011.7
20260506130803 12 343 1.6 6.4 0.00 0.00 0.00 75 1011.7
20260506130716 12 343 1.6 6.4 0.00 0.00 0.00 75 1011.7
20260506130703 12 345 1.6 6.4 0.00 0.00 0.00 75 1011.5
20260506130604 12 343 1.6 6.4 0.00 0.00 0.00 74 1011.5
20260506130404 12 338 1.6 6.4 0.00 0.00 0.00 74 1011.6
20260506130304 12 343 1.6 6.4 0.00 0.00 0.00 74 1011.5
20260506130204 12 347 1.6 6.4 0.00 0.00 0.00 73 1011.6
20260506130104 12 357 1.6 6.4 0.00 0.00 0.00 73 1011.7
20260506130016 12 357 1.6 6.4 0.00 0.00 0.00 73 1011.7
20260506130003 12 356 1.6 6.4 0.00 0.00 0.00 73 1011.5
20260506125904 12 3 1.6 6.4 0.00 0.00 0.00 73 1011.6
20260506125703 12 8 1.6 9.7 0.00 0.00 0.00 72 1011.6
20260506125604 12 23 1.6 9.7 0.00 0.00 0.00 72 1011.6
20260506125514 12 23 1.6 9.7 0.00 0.00 0.00 72 1011.6
20260506125503 12 19 1.6 9.7 0.00 0.00 0.00 72 1011.6
20260506125404 12 14 1.6 9.7 0.00 0.00 0.00 72 1011.4
20260506125203 13 6 3.2 9.7 0.00 0.00 0.00 71 1011.5
20260506125104 13 356 3.2 11.3 0.00 0.00 0.00 70 1011.6
20260506125003 13 353 3.2 11.3 0.00 0.00 0.00 70 1011.6
20260506124904 13 352 3.2 11.3 0.00 0.00 0.00 69 1011.5
20260506124803 13 348 3.2 11.3 0.00 0.00 0.00 69 1011.5
20260506124704 13 346 3.2 11.3 0.00 0.00 0.00 68 1011.6
20260506124604 13 336 3.2 11.3 0.00 0.00 0.00 68 1011.4
20260506124503 13 338 3.2 11.3 0.00 0.00 0.00 68 1011.5
20260506124403 13 340 3.2 11.3 0.00 0.00 0.00 68 1011.4
20260506124304 13 341 3.2 11.3 0.00 0.00 0.00 68 1011.3
20260506124204 13 341 3.2 11.3 0.00 0.00 0.00 68 1011.4
20260506124103 13 345 3.2 11.3 0.00 0.00 0.00 67 1011.3
20260506124013 13 345 3.2 11.3 0.00 0.00 0.00 67 1011.3
20260506124003 13 338 3.2 11.3 0.00 0.00 0.00 67 1011.4
20260506123903 13 338 3.2 6.4 0.00 0.00 0.00 67 1011.5
20260506123703 13 334 3.2 6.4 0.00 0.00 0.00 68 1011.4
20260506123603 13 332 3.2 6.4 0.00 0.00 0.00 68 1011.3
20260506123504 13 326 3.2 6.4 0.00 0.00 0.00 68 1011.3
20260506123403 13 320 3.2 9.7 0.00 0.00 0.00 68 1011.5
20260506123313 13 320 3.2 9.7 0.00 0.00 0.00 68 1011.5
20260506123304 13 319 3.2 9.7 0.00 0.00 0.00 68 1011.5
20260506123203 13 314 3.2 9.7 0.00 0.00 0.00 67 1011.4
20260506123004 13 310 3.2 9.7 0.00 0.00 0.00 68 1011.4
20260506122904 13 307 3.2 9.7 0.00 0.00 0.00 68 1011.5
20260506122804 13 312 3.2 9.7 0.00 0.00 0.00 68 1011.4
20260506122703 13 311 3.2 9.7 0.00 0.00 0.00 68 1011.5
20260506122613 13 311 3.2 9.7 0.00 0.00 0.00 68 1011.5
20260506122604 13 315 3.2 9.7 0.00 0.00 0.00 67 1011.5
20260506122504 13 320 3.2 9.7 0.00 0.00 0.00 67 1011.3
20260506122305 13 329 3.2 9.7 0.00 0.00 0.00 67 1011.2
20260506122204 13 332 3.2 6.4 0.00 0.00 0.00 67 1011.3
20260506122103 13 332 3.2 11.3 0.00 0.00 0.00 67 1011.4
20260506122003 13 328 3.2 11.3 0.00 0.00 0.00 68 1011.4
20260506121913 13 328 3.2 11.3 0.00 0.00 0.00 68 1011.4
20260506121904 13 330 3.2 11.3 0.00 0.00 0.00 68 1011.5
20260506121804 13 328 3.2 11.3 0.00 0.00 0.00 68 1011.4
20260506121715 13 328 3.2 11.3 0.00 0.00 0.00 68 1011.4
20260506121603 13 325 3.2 11.3 0.00 0.00 0.00 69 1011.4
20260506121403 13 324 3.2 11.3 0.00 0.00 0.00 68 1011.3
20260506121303 13 328 3.2 11.3 0.00 0.00 0.00 68 1011.4
20260506121203 13 326 3.2 11.3 0.00 0.00 0.00 68 1011.4
20260506121103 13 328 3.2 11.3 0.00 0.00 0.00 68 1011.5
20260506121003 13 337 3.2 11.3 0.00 0.00 0.00 68 1011.4
20260506120903 13 338 3.2 11.3 0.00 0.00 0.00 68 1011.5
20260506120803 13 330 3.2 11.3 0.00 0.00 0.00 68 1011.4
20260506120703 13 332 3.2 11.3 0.00 0.00 0.00 69 1011.5
20260506120604 13 332 3.2 11.3 0.00 0.00 0.00 69 1011.5
20260506120503 13 328 3.2 11.3 0.00 0.00 0.00 69 1011.3
20260506120404 13 332 3.2 11.3 0.00 0.00 0.00 69 1011.4
20260506120316 13 332 3.2 11.3 0.00 0.00 0.00 69 1011.4
20260506120303 13 327 3.2 11.3 0.00 0.00 0.00 70 1011.5
20260506120203 13 327 3.2 11.3 0.00 0.00 0.00 70 1011.5
20260506120017 12 329 3.2 11.3 0.00 0.00 0.00 70 1011.4
20260506120003 12 325 3.2 11.3 0.00 0.00 0.00 70 1011.4
20260506115903 12 324 3.2 11.3 0.00 0.00 0.00 70 1011.3
20260506115703 12 326 3.2 9.7 0.00 0.00 0.00 70 1011.5
20260506115604 12 326 3.2 9.7 0.00 0.00 0.00 70 1011.5
20260506115503 12 329 1.6 9.7 0.00 0.00 0.00 70 1011.5
20260506115404 12 331 1.6 9.7 0.00 0.00 0.00 70 1011.4
20260506115306 12 337 3.2 6.4 0.00 0.00 0.00 70 1011.6
20260506115203 12 336 3.2 6.4 0.00 0.00 0.00 70 1011.5
20260506115103 12 334 3.2 6.4 0.00 0.00 0.00 70 1011.3
20260506115003 12 335 3.2 6.4 0.00 0.00 0.00 70 1011.5
20260506114916 12 335 3.2 6.4 0.00 0.00 0.00 70 1011.5
20260506114904 12 335 1.6 6.4 0.00 0.00 0.00 71 1011.5
20260506114803 12 338 1.6 6.4 0.00 0.00 0.00 71 1011.5
20260506114604 12 342 1.6 6.4 0.00 0.00 0.00 71 1011.5
20260506114504 12 337 1.6 6.4 0.00 0.00 0.00 71 1011.5
20260506114403 12 334 1.6 6.4 0.00 0.00 0.00 72 1011.4
20260506114303 12 329 1.6 11.3 0.00 0.00 0.00 72 1011.5
20260506114203 12 327 1.6 11.3 0.00 0.00 0.00 72 1011.6
20260506114103 12 329 1.6 11.3 0.00 0.00 0.00 72 1011.3
20260506114003 12 329 1.6 11.3 0.00 0.00 0.00 72 1011.4
20260506113904 12 329 1.6 11.3 0.00 0.00 0.00 72 1011.4
20260506113804 12 331 1.6 11.3 0.00 0.00 0.00 72 1011.3
20260506113704 12 327 3.2 11.3 0.00 0.00 0.00 72 1011.2
20260506113613 12 327 3.2 11.3 0.00 0.00 0.00 72 1011.2
20260506113603 12 326 3.2 11.3 0.00 0.00 0.00 72 1011.4
20260506113503 12 324 3.2 11.3 0.00 0.00 0.00 73 1011.5
20260506113303 12 314 3.2 11.3 0.00 0.00 0.00 73 1011.4
20260506113203 12 320 3.2 11.3 0.00 0.00 0.00 73 1011.4
20260506113116 12 320 3.2 11.3 0.00 0.00 0.00 73 1011.4
20260506113104 12 314 3.2 9.7 0.00 0.00 0.00 73 1011.2
20260506113003 11 317 3.2 9.7 0.00 0.00 0.00 73 1011.3
20260506112804 11 317 3.2 9.7 0.00 0.00 0.00 73 1011.4
20260506112703 11 318 3.2 9.7 0.00 0.00 0.00 73 1011.4
20260506112614 11 318 3.2 9.7 0.00 0.00 0.00 73 1011.4
20260506112603 11 321 3.2 12.9 0.00 0.00 0.00 73 1011.4
20260506112518 11 321 3.2 12.9 0.00 0.00 0.00 73 1011.4
20260506112503 11 329 3.2 12.9 0.00 0.00 0.00 73 1011.3
20260506112203 11 337 3.2 12.9 0.00 0.00 0.00 73 1011.4
20260506112103 11 340 3.2 12.9 0.00 0.00 0.00 73 1011.2
20260506112003 11 342 3.2 12.9 0.00 0.00 0.00 73 1011.3
20260506111903 11 334 3.2 12.9 0.00 0.00 0.00 74 1011.3
20260506111804 11 337 3.2 12.9 0.00 0.00 0.00 74 1011.4
20260506111707 11 337 3.2 12.9 0.00 0.00 0.00 74 1011.4
20260506111604 11 342 3.2 12.9 0.00 0.00 0.00 73 1011.4
20260506111513 11 342 3.2 12.9 0.00 0.00 0.00 73 1011.4
20260506111503 11 346 3.2 12.9 0.00 0.00 0.00 74 1011.3
20260506111417 11 346 3.2 12.9 0.00 0.00 0.00 74 1011.3
20260506111403 11 349 3.2 11.3 0.00 0.00 0.00 74 1011.3
20260506111104 11 1 3.2 9.7 0.00 0.00 0.00 74 1011.4
20260506111003 11 342 3.2 9.7 0.00 0.00 0.00 74 1011.3
20260506110903 11 346 3.2 12.9 0.00 0.00 0.00 74 1011.4
20260506110804 11 354 3.2 12.9 0.00 0.00 0.00 74 1011.3
20260506110703 11 353 3.2 12.9 0.00 0.00 0.00 74 1011.5
20260506110603 11 351 3.2 12.9 0.00 0.00 0.00 74 1011.3
20260506110503 11 347 3.2 12.9 0.00 0.00 0.00 74 1011.4
20260506110403 11 345 3.2 12.9 0.00 0.00 0.00 74 1011.4
20260506110303 11 338 3.2 12.9 0.00 0.00 0.00 74 1011.4
20260506110203 11 336 4.8 12.9 0.00 0.00 0.00 74 1011.4
20260506110104 11 333 4.8 12.9 0.00 0.00 0.00 74 1011.3
20260506110003 11 336 4.8 12.9 0.00 0.00 0.00 74 1011.4
20260506105903 11 332 4.8 12.9 0.00 0.00 0.00 74 1011.4
20260506105804 11 325 4.8 12.9 0.00 0.00 0.00 73 1011.4
20260506105713 11 325 4.8 12.9 0.00 0.00 0.00 73 1011.4
20260506105703 11 325 4.8 11.3 0.00 0.00 0.00 73 1011.4
20260506105604 11 321 4.8 11.3 0.00 0.00 0.00 73 1011.4
20260506105403 11 317 3.2 11.3 0.00 0.00 0.00 73 1011.4
20260506105305 11 322 3.2 11.3 0.00 0.00 0.00 73 1011.5
20260506105216 11 322 3.2 11.3 0.00 0.00 0.00 73 1011.5
20260506105203 11 318 3.2 11.3 0.00 0.00 0.00 73 1011.6
20260506105115 11 318 3.2 11.3 0.00 0.00 0.00 73 1011.6
20260506105103 11 316 3.2 11.3 0.00 0.00 0.00 73 1011.3
20260506104917 11 316 3.2 11.3 0.00 0.00 0.00 73 1011.4
20260506104803 11 329 3.2 9.7 0.00 0.00 0.00 73 1011.4
20260506104714 11 329 3.2 9.7 0.00 0.00 0.00 73 1011.4
20260506104603 11 346 3.2 9.7 0.00 0.00 0.00 73 1011.6
20260506104403 11 342 3.2 9.7 0.00 0.00 0.00 73 1011.5
20260506104303 11 338 3.2 9.7 0.00 0.00 0.00 72 1011.4
20260506104203 11 335 3.2 9.7 0.00 0.00 0.00 73 1011.5
20260506104103 11 339 3.2 9.7 0.00 0.00 0.00 72 1011.7
20260506104004 12 328 3.2 9.7 0.00 0.00 0.00 72 1011.5
20260506103903 12 338 3.2 9.7 0.00 0.00 0.00 72 1011.4
20260506103803 12 327 3.2 9.7 0.00 0.00 0.00 72 1011.5
20260506103703 12 319 3.2 9.7 0.00 0.00 0.00 71 1011.5
20260506103614 12 319 3.2 9.7 0.00 0.00 0.00 71 1011.5
20260506103604 12 316 3.2 9.7 0.00 0.00 0.00 71 1011.5
20260506103517 12 316 3.2 9.7 0.00 0.00 0.00 71 1011.5
20260506103503 12 319 3.2 9.7 0.00 0.00 0.00 71 1011.4
20260506103314 12 324 3.2 12.9 0.00 0.00 0.00 71 1011.4
20260506103204 12 320 3.2 12.9 0.00 0.00 0.00 71 1011.5
20260506103004 12 323 3.2 12.9 0.00 0.00 0.00 71 1011.4
20260506102914 12 323 3.2 12.9 0.00 0.00 0.00 71 1011.4
20260506102903 12 318 3.2 12.9 0.00 0.00 0.00 71 1011.7
20260506102803 12 322 3.2 12.9 0.00 0.00 0.00 70 1011.4
20260506102614 12 327 3.2 12.9 0.00 0.00 0.00 70 1011.4
20260506102603 12 321 4.8 12.9 0.00 0.00 0.00 70 1011.4
20260506102503 12 320 4.8 12.9 0.00 0.00 0.00 70 1011.4
20260506102315 12 313 4.8 12.9 0.00 0.00 0.00 70 1011.4
20260506102305 12 314 4.8 12.9 0.00 0.00 0.00 70 1011.4
20260506102203 12 317 4.8 12.9 0.00 0.00 0.00 70 1011.3
20260506102003 13 321 4.8 11.3 0.00 0.00 0.00 71 1011.4
20260506101903 13 330 3.2 11.3 0.00 0.00 0.00 71 1011.5
20260506101803 13 335 3.2 11.3 0.00 0.00 0.00 71 1011.4
20260506101703 13 338 3.2 11.3 0.00 0.00 0.00 72 1011.4
20260506101616 13 338 3.2 11.3 0.00 0.00 0.00 72 1011.4
20260506101603 12 346 3.2 11.3 0.00 0.00 0.00 72 1011.4
20260506101504 12 345 3.2 11.3 0.00 0.00 0.00 71 1011.5
20260506101304 12 349 3.2 11.3 0.00 0.00 0.00 71 1011.4
20260506101204 12 351 3.2 11.3 0.00 0.00 0.00 71 1011.4
20260506101103 12 348 3.2 11.3 0.00 0.00 0.00 71 1011.4
20260506101003 12 355 3.2 11.3 0.00 0.00 0.00 71 1011.6
20260506100903 12 348 3.2 11.3 0.00 0.00 0.00 71 1011.5
20260506100803 12 338 3.2 11.3 0.00 0.00 0.00 72 1011.5
20260506100704 12 332 3.2 11.3 0.00 0.00 0.00 72 1011.4
20260506100603 12 325 4.8 11.3 0.00 0.00 0.00 72 1011.4
20260506100503 12 323 4.8 11.3 0.00 0.00 0.00 73 1011.5
20260506100403 12 318 4.8 11.3 0.00 0.00 0.00 72 1011.4
20260506100303 12 319 4.8 11.3 0.00 0.00 0.00 72 1011.4
20260506100203 12 313 4.8 14.5 0.00 0.00 0.00 73 1011.3
20260506100104 12 310 3.2 14.5 0.00 0.00 0.00 73 1011.4
20260506100013 12 310 3.2 14.5 0.00 0.00 0.00 73 1011.4
20260506100003 12 305 3.2 14.5 0.00 0.00 0.00 73 1011.4
20260506095903 12 306 4.8 14.5 0.00 0.00 0.00 73 1011.2
20260506095704 12 304 4.8 14.5 0.00 0.00 0.00 73 1011.3
20260506095603 12 307 4.8 14.5 0.00 0.00 0.00 73 1011.3
20260506095503 12 304 3.2 14.5 0.00 0.00 0.00 73 1011.3
20260506095404 12 305 3.2 14.5 0.00 0.00 0.00 73 1011.3
20260506095305 12 301 3.2 14.5 0.00 0.00 0.00 73 1011.2
20260506095203 12 306 3.2 14.5 0.00 0.00 0.00 73 1011.3
20260506095115 12 306 3.2 14.5 0.00 0.00 0.00 73 1011.3
20260506095103 12 315 4.8 14.5 0.00 0.00 0.00 74 1011.3
20260506095014 12 315 4.8 14.5 0.00 0.00 0.00 74 1011.3
20260506095004 12 312 4.8 11.3 0.00 0.00 0.00 74 1011.2
20260506094703 12 317 4.8 16.1 0.00 0.00 0.00 75 1011.3
20260506094603 11 328 4.8 16.1 0.00 0.00 0.00 75 1011.3
20260506094503 11 326 4.8 16.1 0.00 0.00 0.00 76 1011.3
20260506094404 11 325 4.8 16.1 0.00 0.00 0.00 76 1011.4
20260506094303 11 325 4.8 16.1 0.00 0.00 0.00 77 1011.4
20260506094203 11 319 4.8 16.1 0.00 0.00 0.00 77 1011.3
20260506094103 11 312 4.8 16.1 0.00 0.00 0.00 77 1011.5
20260506094015 11 312 4.8 16.1 0.00 0.00 0.00 77 1011.5
20260506094003 11 310 4.8 16.1 0.00 0.00 0.00 78 1011.4
20260506093913 11 310 4.8 16.1 0.00 0.00 0.00 78 1011.4
20260506093904 11 312 4.8 16.1 0.00 0.00 0.00 78 1011.3
20260506093604 11 298 3.2 16.1 0.00 0.00 0.00 78 1011.3
20260506093503 11 297 3.2 12.9 0.00 0.00 0.00 77 1011.3
20260506093404 11 301 3.2 12.9 0.00 0.00 0.00 78 1011.2
20260506093303 11 302 3.2 12.9 0.00 0.00 0.00 78 1011.3
20260506093204 11 308 3.2 12.9 0.00 0.00 0.00 78 1011.4
20260506093103 11 310 3.2 12.9 0.00 0.00 0.00 78 1011.3
20260506093003 11 311 3.2 12.9 0.00 0.00 0.00 78 1011.3
20260506092914 11 311 3.2 12.9 0.00 0.00 0.00 78 1011.3
20260506092904 11 315 3.2 12.9 0.00 0.00 0.00 78 1011.2
20260506092803 11 312 3.2 12.9 0.00 0.00 0.00 78 1011.3
20260506092615 11 317 3.2 12.9 0.00 0.00 0.00 78 1011.4
20260506092603 11 325 3.2 12.9 0.00 0.00 0.00 78 1011.3
20260506092504 11 337 3.2 12.9 0.00 0.00 0.00 78 1011.3
20260506092305 11 344 4.8 14.5 0.00 0.00 0.00 78 1011.2
20260506092203 11 335 4.8 14.5 0.00 0.00 0.00 78 1011.2
20260506092103 11 349 4.8 14.5 0.00 0.00 0.00 79 1011.3
20260506092017 11 349 4.8 14.5 0.00 0.00 0.00 79 1011.3
20260506092004 11 360 4.8 14.5 0.00 0.00 0.00 79 1011.4
20260506091903 11 360 4.8 14.5 0.00 0.00 0.00 79 1011.3
20260506091703 11 356 4.8 14.5 0.00 0.00 0.00 79 1011.2
20260506091603 11 2 4.8 14.5 0.00 0.00 0.00 80 1011.4
20260506091504 11 348 4.8 16.1 0.00 0.00 0.00 80 1011.1
20260506091403 11 343 4.8 16.1 0.00 0.00 0.00 80 1011.3
20260506091303 11 341 4.8 16.1 0.00 0.00 0.00 80 1011.2
20260506091203 10 341 4.8 16.1 0.00 0.00 0.00 80 1011.4
20260506091103 10 333 4.8 16.1 0.00 0.00 0.00 79 1011.3
20260506091003 10 325 4.8 16.1 0.00 0.00 0.00 79 1011.1
20260506090903 10 323 6.4 16.1 0.00 0.00 0.00 80 1011.4
20260506090803 10 321 4.8 16.1 0.00 0.00 0.00 79 1011.2
20260506090704 10 314 4.8 16.1 0.00 0.00 0.00 79 1011.1
20260506090603 10 308 4.8 16.1 0.00 0.00 0.00 79 1011.3
20260506090503 10 310 4.8 16.1 0.00 0.00 0.00 79 1011.2
20260506090414 10 310 4.8 16.1 0.00 0.00 0.00 79 1011.2
20260506090404 10 319 4.8 16.1 0.00 0.00 0.00 79 1011.3
20260506090304 10 313 4.8 16.1 0.00 0.00 0.00 80 1011.2
20260506090003 10 325 4.8 16.1 0.00 0.00 0.00 80 1011.1
20260506085912 10 325 4.8 16.1 0.00 0.00 0.00 80 1011.1
20260506085903 10 319 4.8 16.1 0.00 0.00 0.00 80 1011.1
20260506085804 10 327 4.8 16.1 0.00 0.00 0.00 80 1011.0
20260506085613 10 334 4.8 12.9 0.00 0.00 0.00 80 1011.0
20260506085603 10 335 4.8 12.9 0.00 0.00 0.00 80 1011.0
20260506085504 10 330 4.8 11.3 0.00 0.00 0.00 80 1011.3
20260506085314 10 326 4.8 11.3 0.00 0.00 0.00 80 1011.2
20260506085306 10 325 4.8 11.3 0.00 0.00 0.00 80 1011.2
20260506085217 10 325 4.8 11.3 0.00 0.00 0.00 80 1011.2
20260506085204 10 324 4.8 11.3 0.00 0.00 0.00 80 1011.0
20260506084918 10 314 4.8 11.3 0.00 0.00 0.00 80 1011.3
20260506084903 10 310 4.8 16.1 0.00 0.00 0.00 80 1011.2
20260506084804 10 302 4.8 16.1 0.00 0.00 0.00 80 1011.3
20260506084604 10 303 4.8 16.1 0.00 0.00 0.00 80 1010.9
20260506084503 10 306 3.2 16.1 0.00 0.00 0.00 80 1011.1
20260506084403 10 300 4.8 16.1 0.00 0.00 0.00 80 1011.0
20260506084304 10 298 4.8 16.1 0.00 0.00 0.00 80 1011.0
20260506084204 10 295 4.8 16.1 0.00 0.00 0.00 80 1010.9
20260506084103 10 301 4.8 16.1 0.00 0.00 0.00 80 1011.0
20260506084003 10 299 4.8 16.1 0.00 0.00 0.00 80 1011.0
20260506083903 10 306 3.2 16.1 0.00 0.00 0.00 80 1011.1
20260506083818 10 306 3.2 16.1 0.00 0.00 0.00 80 1011.1
20260506083803 10 314 4.8 16.1 0.00 0.00 0.00 80 1011.2
20260506083703 10 319 4.8 14.5 0.00 0.00 0.00 81 1011.2
20260506083504 10 317 3.2 12.9 0.00 0.00 0.00 81 1011.0
20260506083403 10 323 4.8 12.9 0.00 0.00 0.00 81 1011.1
20260506083303 10 323 4.8 12.9 0.00 0.00 0.00 81 1011.0
20260506083203 10 335 4.8 17.7 0.00 0.00 0.00 81 1011.0
20260506083103 10 339 4.8 17.7 0.00 0.00 0.00 81 1011.1
20260506083004 10 336 4.8 17.7 0.00 0.00 0.00 81 1011.0
20260506082916 10 336 4.8 17.7 0.00 0.00 0.00 81 1011.0
20260506082903 10 341 4.8 17.7 0.00 0.00 0.00 81 1011.1
20260506082804 10 338 4.8 17.7 0.00 0.00 0.00 81 1011.0
20260506082604 10 339 4.8 17.7 0.00 0.00 0.00 81 1011.2
20260506082503 10 340 4.8 17.7 0.00 0.00 0.00 81 1011.1
20260506082403 10 337 4.8 17.7 0.00 0.00 0.00 81 1011.0
20260506082305 10 345 4.8 17.7 0.00 0.00 0.00 81 1011.3
20260506082203 10 329 4.8 17.7 0.00 0.00 0.00 81 1010.9
20260506082103 10 323 4.8 17.7 0.00 0.00 0.00 81 1010.9
20260506082003 10 328 4.8 14.5 0.00 0.00 0.00 81 1010.9
20260506081916 10 328 4.8 14.5 0.00 0.00 0.00 81 1010.9
20260506081904 10 322 4.8 14.5 0.00 0.00 0.00 81 1010.9
20260506081814 10 322 4.8 14.5 0.00 0.00 0.00 81 1010.9
20260506081803 10 324 4.8 14.5 0.00 0.00 0.00 81 1010.8
20260506081503 10 325 4.8 14.5 0.00 0.00 0.00 81 1011.1
20260506081414 10 325 4.8 14.5 0.00 0.00 0.00 81 1011.1
20260506081404 10 327 4.8 14.5 0.00 0.00 0.00 81 1011.1
20260506081303 10 325 4.8 14.5 0.00 0.00 0.00 81 1011.0
20260506081103 10 325 4.8 16.1 0.00 0.00 0.00 81 1011.0
20260506081004 10 327 4.8 16.1 0.00 0.00 0.00 81 1011.1
20260506080903 10 328 4.8 16.1 0.00 0.00 0.00 81 1010.9
20260506080804 10 330 4.8 16.1 0.00 0.00 0.00 81 1010.9
20260506080703 10 321 4.8 16.1 0.00 0.00 0.00 81 1010.9
20260506080604 10 318 4.8 16.1 0.00 0.00 0.00 81 1011.0
20260506080503 10 308 4.8 16.1 0.00 0.00 0.00 81 1011.1
20260506080415 10 308 4.8 16.1 0.00 0.00 0.00 81 1011.1
20260506080403 10 308 4.8 16.1 0.00 0.00 0.00 81 1010.9
20260506080313 10 308 4.8 16.1 0.00 0.00 0.00 81 1010.9
20260506080303 10 310 3.2 16.1 0.00 0.00 0.00 81 1010.8
20260506080217 10 310 3.2 16.1 0.00 0.00 0.00 81 1010.8
20260506073504 10 309 4.8 16.1 0.00 0.00 0.00 82 1010.9
20260506073404 10 313 4.8 16.1 0.00 0.00 0.00 82 1011.0
20260506073303 10 312 4.8 16.1 0.00 0.00 0.00 82 1010.7
20260506073203 10 308 4.8 16.1 0.00 0.00 0.00 82 1010.7
20260506073104 10 314 4.8 16.1 0.00 0.00 0.00 82 1010.8
20260506073003 10 317 4.8 14.5 0.00 0.00 0.00 82 1010.7
20260506072904 10 322 4.8 14.5 0.00 0.00 0.00 82 1011.0
20260506072803 10 327 4.8 14.5 0.00 0.00 0.00 81 1010.7
20260506072704 10 332 4.8 14.5 0.00 0.00 0.00 81 1010.8
20260506072603 10 326 4.8 14.5 0.00 0.00 0.00 81 1010.7
20260506072504 10 329 4.8 11.3 0.00 0.00 0.00 82 1010.9
20260506072404 10 332 4.8 14.5 0.00 0.00 0.00 82 1011.0
20260506072305 10 336 4.8 14.5 0.00 0.00 0.00 82 1010.8
20260506072203 10 338 4.8 16.1 0.00 0.00 0.00 81 1010.7
20260506072103 10 342 4.8 16.1 0.00 0.00 0.00 81 1010.5
20260506072013 10 342 4.8 16.1 0.00 0.00 0.00 81 1010.5
20260506072003 10 341 4.8 16.1 0.00 0.00 0.00 82 1010.8
20260506071903 10 343 4.8 16.1 0.00 0.00 0.00 81 1010.6
20260506071714 10 345 4.8 16.1 0.00 0.00 0.00 81 1010.8
20260506071703 10 344 4.8 16.1 0.00 0.00 0.00 81 1010.6
20260506071612 10 344 4.8 16.1 0.00 0.00 0.00 81 1010.6
20260506071604 10 348 4.8 16.1 0.00 0.00 0.00 81 1010.7
20260506071516 10 348 4.8 16.1 0.00 0.00 0.00 81 1010.7
20260506071203 10 321 4.8 16.1 0.00 0.00 0.00 81 1010.6
20260506071104 10 315 4.8 16.1 0.00 0.00 0.00 81 1010.6
20260506071003 10 312 4.8 14.5 0.00 0.00 0.00 81 1010.5
20260506070904 10 306 4.8 14.5 0.00 0.00 0.00 81 1010.5
20260506070803 10 303 4.8 14.5 0.00 0.00 0.00 81 1010.6
20260506070715 10 303 4.8 14.5 0.00 0.00 0.00 81 1010.6
20260506070703 10 305 4.8 14.5 0.00 0.00 0.00 81 1010.4
20260506070604 10 308 4.8 14.5 0.00 0.00 0.00 81 1010.5
20260506070404 10 307 4.8 14.5 0.00 0.00 0.00 81 1010.6
20260506070304 10 306 4.8 14.5 0.00 0.00 0.00 82 1010.7
20260506070208 10 306 4.8 14.5 0.00 0.00 0.00 82 1010.7
20260506070103 10 309 4.8 14.5 0.00 0.00 0.00 81 1010.6
20260506062503 9 293 4.8 14.5 0.00 0.00 0.00 83 1010.5
20260506062414 9 293 4.8 14.5 0.00 0.00 0.00 83 1010.5
20260506062403 9 297 4.8 14.5 0.00 0.00 0.00 83 1010.6
20260506062305 9 303 4.8 14.5 0.00 0.00 0.00 83 1010.5
20260506062103 9 313 4.8 16.1 0.00 0.00 0.00 83 1010.4
20260506062014 9 313 4.8 16.1 0.00 0.00 0.00 83 1010.4
20260506062004 9 313 4.8 16.1 0.00 0.00 0.00 83 1010.3
20260506061903 9 314 4.8 16.1 0.00 0.00 0.00 83 1010.3
20260506061703 9 331 4.8 16.1 0.00 0.00 0.00 83 1010.5
20260506061613 9 331 4.8 16.1 0.00 0.00 0.00 83 1010.5
20260506061603 9 341 4.8 16.1 0.00 0.00 0.00 83 1010.4
20260506061517 9 341 4.8 16.1 0.00 0.00 0.00 83 1010.4
20260506061503 9 348 4.8 16.1 0.00 0.00 0.00 83 1010.5
20260506061314 9 353 4.8 16.1 0.00 0.00 0.00 83 1010.5
20260506061203 9 339 4.8 16.1 0.00 0.00 0.00 83 1010.4
20260506061003 9 345 4.8 11.3 0.00 0.00 0.00 83 1010.4
20260506060903 9 333 4.8 11.3 0.00 0.00 0.00 83 1010.3
20260506060803 9 328 4.8 14.5 0.00 0.00 0.00 83 1010.3
20260506060703 9 336 4.8 14.5 0.00 0.00 0.00 83 1010.3
20260506060614 9 336 4.8 14.5 0.00 0.00 0.00 83 1010.3
20260506060604 9 321 4.8 14.5 0.00 0.00 0.00 83 1010.2
20260506060503 9 306 4.8 14.5 0.00 0.00 0.00 83 1010.5
20260506060303 9 308 4.8 14.5 0.00 0.00 0.00 83 1010.3
20260506060213 9 308 4.8 14.5 0.00 0.00 0.00 83 1010.3
20260506060203 9 309 4.8 14.5 0.00 0.00 0.00 84 1010.3
20260506051304 8 314 4.8 16.1 0.00 0.00 0.00 83 1010.4
20260506051203 8 345 4.8 16.1 0.00 0.00 0.00 83 1010.4
20260506051104 8 16 4.8 16.1 0.00 0.00 0.00 83 1010.4
20260506051003 8 173 4.8 16.1 0.00 0.00 0.00 83 1010.4
20260506050903 8 318 4.8 16.1 0.00 0.00 0.00 83 1010.3
20260506050804 8 344 4.8 16.1 0.00 0.00 0.00 83 1010.4
20260506050703 8 348 4.8 14.5 0.00 0.00 0.00 83 1010.7
20260506050603 8 353 4.8 14.5 0.00 0.00 0.00 83 1010.4
20260506050503 8 327 3.2 14.5 0.00 0.00 0.00 83 1010.4
20260506050417 8 327 3.2 14.5 0.00 0.00 0.00 83 1010.4
20260506050403 8 322 3.2 14.5 0.00 0.00 0.00 83 1010.4
20260506050315 8 322 3.2 14.5 0.00 0.00 0.00 83 1010.4
20260506050303 8 316 3.2 14.5 0.00 0.00 0.00 83 1010.4
20260506050214 8 316 3.2 14.5 0.00 0.00 0.00 83 1010.4
20260506045004 8 331 4.8 17.7 0.00 0.00 0.00 82 1010.4
20260506044904 8 339 4.8 17.7 0.00 0.00 0.00 82 1010.4
20260506044804 8 333 4.8 17.7 0.00 0.00 0.00 82 1010.6
20260506044704 8 345 4.8 17.7 0.00 0.00 0.00 82 1010.6
20260506044603 8 333 3.2 17.7 0.00 0.00 0.00 81 1010.4
20260506044503 8 330 3.2 17.7 0.00 0.00 0.00 82 1010.3
20260506044403 8 343 4.8 17.7 0.00 0.00 0.00 81 1010.4
20260506044304 8 332 4.8 17.7 0.00 0.00 0.00 81 1010.2
20260506044216 8 332 4.8 17.7 0.00 0.00 0.00 81 1010.2
20260506044203 8 331 4.8 17.7 0.00 0.00 0.00 81 1010.5
20260506044103 9 328 4.8 17.7 0.00 0.00 0.00 81 1010.2
20260506043904 9 318 4.8 17.7 0.00 0.00 0.00 81 1010.5
20260506043803 9 331 4.8 12.9 0.00 0.00 0.00 81 1010.2
20260506043703 9 323 4.8 12.9 0.00 0.00 0.00 81 1010.2
20260506043603 9 331 4.8 12.9 0.00 0.00 0.00 82 1010.3
20260506043504 9 317 4.8 14.5 0.00 0.00 0.00 81 1010.4
20260506043403 9 307 4.8 14.5 0.00 0.00 0.00 81 1010.4
20260506043303 9 313 4.8 14.5 0.00 0.00 0.00 81 1010.3
20260506043203 9 313 4.8 14.5 0.00 0.00 0.00 81 1010.3
20260506043103 9 306 4.8 14.5 0.00 0.00 0.00 82 1010.4
20260506043003 9 317 4.8 14.5 0.00 0.00 0.00 81 1010.3
20260506042917 9 317 4.8 14.5 0.00 0.00 0.00 81 1010.3
20260506042904 9 324 4.8 14.5 0.00 0.00 0.00 81 1010.3
20260506042803 9 322 4.8 14.5 0.00 0.00 0.00 82 1010.5
20260506042603 9 314 4.8 14.5 0.00 0.00 0.00 82 1010.4
20260506042517 9 314 4.8 14.5 0.00 0.00 0.00 82 1010.4
20260506042504 9 328 4.8 11.3 0.00 0.00 0.00 82 1010.5
20260506042403 9 328 4.8 11.3 0.00 0.00 0.00 82 1010.6
20260506042218 9 334 4.8 11.3 0.00 0.00 0.00 82 1010.4
20260506042203 9 335 4.8 11.3 0.00 0.00 0.00 82 1010.5
20260506042103 9 336 4.8 11.3 0.00 0.00 0.00 82 1010.5
20260506041913 9 332 4.8 11.3 0.00 0.00 0.00 82 1010.4
20260506041903 9 328 4.8 12.9 0.00 0.00 0.00 82 1010.3
20260506041803 9 325 4.8 12.9 0.00 0.00 0.00 82 1010.5
20260506041604 9 347 3.2 16.1 0.00 0.00 0.00 82 1010.5
20260506041504 9 347 3.2 16.1 0.00 0.00 0.00 82 1010.3
20260506041403 9 347 4.8 16.1 0.00 0.00 0.00 82 1010.4
20260506041304 9 341 3.2 16.1 0.00 0.00 0.00 82 1010.5
20260506041204 9 337 3.2 16.1 0.00 0.00 0.00 82 1010.6
20260506041104 9 341 3.2 16.1 0.00 0.00 0.00 82 1010.4
20260506041004 9 346 4.8 16.1 0.00 0.00 0.00 82 1010.4
20260506040914 9 346 4.8 16.1 0.00 0.00 0.00 82 1010.4
20260506040903 9 1 3.2 16.1 0.00 0.00 0.00 83 1010.5
20260506040804 9 5 3.2 16.1 0.00 0.00 0.00 83 1010.5
20260506040716 9 5 3.2 16.1 0.00 0.00 0.00 83 1010.5
20260506040603 9 326 4.8 12.9 0.00 0.00 0.00 83 1010.4
20260506040514 9 326 4.8 12.9 0.00 0.00 0.00 83 1010.4
20260506040404 9 318 3.2 12.9 0.00 0.00 0.00 83 1010.5
20260506040203 9 324 3.2 12.9 0.00 0.00 0.00 83 1010.3
20260506040003 9 336 4.8 12.9 0.00 0.00 0.00 83 1010.6
20260506035915 9 336 4.8 12.9 0.00 0.00 0.00 83 1010.6
20260506035903 9 321 4.8 14.5 0.00 0.00 0.00 83 1010.5
20260506035803 9 309 4.8 14.5 0.00 0.00 0.00 83 1010.5
20260506035616 9 319 4.8 14.5 0.00 0.00 0.00 83 1010.6
20260506035604 9 325 4.8 14.5 0.00 0.00 0.00 83 1010.7
20260506035503 9 324 4.8 14.5 0.00 0.00 0.00 83 1010.7
20260506035413 9 324 4.8 14.5 0.00 0.00 0.00 83 1010.7
20260506035305 9 314 4.8 14.5 0.00 0.00 0.00 83 1010.5
20260506035104 9 307 4.8 14.5 0.00 0.00 0.00 83 1010.4
20260506035004 9 299 4.8 14.5 0.00 0.00 0.00 83 1010.5
20260506034903 9 309 4.8 14.5 0.00 0.00 0.00 83 1010.6
20260506034815 9 309 4.8 14.5 0.00 0.00 0.00 83 1010.6
20260506034804 9 317 4.8 14.5 0.00 0.00 0.00 83 1010.4
20260506034703 9 316 3.2 12.9 0.00 0.00 0.00 83 1010.5
20260506034503 9 325 3.2 12.9 0.00 0.00 0.00 84 1010.4
20260506034403 9 337 3.2 12.9 0.00 0.00 0.00 84 1010.5
20260506034313 9 337 3.2 12.9 0.00 0.00 0.00 84 1010.5
20260506034303 9 343 3.2 12.9 0.00 0.00 0.00 84 1010.4
20260506034203 9 346 3.2 12.9 0.00 0.00 0.00 84 1010.4
20260506034003 9 1 3.2 14.5 0.00 0.00 0.00 84 1010.6
20260506033912 9 1 3.2 14.5 0.00 0.00 0.00 84 1010.6
20260506033903 9 359 3.2 14.5 0.00 0.00 0.00 84 1010.6
20260506033803 9 359 3.2 14.5 0.00 0.00 0.00 84 1010.6
20260506033714 9 359 3.2 14.5 0.00 0.00 0.00 84 1010.6
20260506033604 9 358 3.2 14.5 0.00 0.00 0.00 84 1010.7
20260506033403 9 338 3.2 14.5 0.00 0.00 0.00 84 1010.7
20260506033303 9 334 3.2 14.5 0.00 0.00 0.00 84 1010.5
20260506033204 9 324 3.2 14.5 0.00 0.00 0.00 84 1010.6
20260506033116 9 324 3.2 14.5 0.00 0.00 0.00 84 1010.6
20260506033103 9 322 3.2 14.5 0.00 0.00 0.00 84 1010.6
20260506033004 9 317 3.2 14.5 0.00 0.00 0.00 84 1010.6
20260506032803 9 321 3.2 9.7 0.00 0.00 0.00 84 1010.7
20260506032704 9 323 3.2 9.7 0.00 0.00 0.00 84 1010.9
20260506032603 9 327 3.2 9.7 0.00 0.00 0.00 84 1010.8
20260506032503 9 322 3.2 9.7 0.00 0.00 0.00 84 1010.5
20260506032404 9 313 3.2 9.7 0.00 0.00 0.00 84 1011.0
20260506032305 9 320 3.2 9.7 0.00 0.00 0.00 84 1010.8
20260506032204 9 323 3.2 9.7 0.00 0.00 0.00 84 1010.7
20260506032103 9 320 3.2 9.7 0.00 0.00 0.00 84 1010.8
20260506032015 9 320 3.2 9.7 0.00 0.00 0.00 84 1010.8
20260506032003 9 319 3.2 9.7 0.00 0.00 0.00 84 1010.7
20260506031914 9 319 3.2 9.7 0.00 0.00 0.00 84 1010.7
20260506031903 9 314 3.2 9.7 0.00 0.00 0.00 85 1010.8
20260506031716 9 312 3.2 9.7 0.00 0.00 0.00 85 1010.7
20260506031603 9 319 3.2 9.7 0.00 0.00 0.00 84 1010.6
20260506031404 9 320 3.2 11.3 0.00 0.00 0.00 85 1010.8
20260506031316 9 320 3.2 11.3 0.00 0.00 0.00 85 1010.8
20260506031304 9 317 3.2 11.3 0.00 0.00 0.00 85 1010.8
20260506031204 9 321 3.2 11.3 0.00 0.00 0.00 85 1010.7
20260506031016 9 323 3.2 11.3 0.00 0.00 0.00 85 1010.7
20260506031003 9 327 3.2 11.3 0.00 0.00 0.00 85 1010.8
20260506030904 9 326 3.2 11.3 0.00 0.00 0.00 85 1010.7
20260506030703 9 327 3.2 11.3 0.00 0.00 0.00 85 1010.8
20260506030616 9 327 3.2 11.3 0.00 0.00 0.00 85 1010.8
20260506030603 9 333 3.2 11.3 0.00 0.00 0.00 85 1011.0
20260506030503 9 337 3.2 11.3 0.00 0.00 0.00 85 1010.8
20260506030304 9 338 3.2 11.3 0.00 0.00 0.00 85 1010.9
20260506030203 9 331 3.2 11.3 0.00 0.00 0.00 85 1010.7
20260506030104 9 328 3.2 11.3 0.00 0.00 0.00 85 1010.9
20260506030003 9 323 3.2 11.3 0.00 0.00 0.00 85 1010.9
20260506025904 9 320 3.2 11.3 0.00 0.00 0.00 85 1010.9
20260506025804 9 309 3.2 11.3 0.00 0.00 0.00 85 1010.8
20260506025703 9 300 3.2 11.3 0.00 0.00 0.00 85 1010.9
20260506025603 9 295 3.2 11.3 0.00 0.00 0.00 85 1011.1
20260506025503 9 292 3.2 12.9 0.00 0.00 0.00 85 1010.8
20260506025414 9 292 3.2 12.9 0.00 0.00 0.00 85 1010.8
20260506025403 9 292 3.2 12.9 0.00 0.00 0.00 85 1011.0
20260506025305 10 291 3.2 16.1 0.00 0.00 0.00 85 1010.9
20260506025106 9 292 4.8 16.1 0.00 0.00 0.00 85 1011.1
20260506025003 9 307 4.8 16.1 0.00 0.00 0.00 85 1011.0
20260506024803 10 316 4.8 16.1 0.00 0.00 0.00 85 1011.1
20260506024704 10 324 4.8 16.1 0.00 0.00 0.00 85 1010.8
20260506024603 10 329 4.8 16.1 0.00 0.00 0.00 85 1010.9
20260506024504 10 332 4.8 16.1 0.00 0.00 0.00 85 1010.6
20260506024415 10 332 4.8 16.1 0.00 0.00 0.00 85 1010.6
20260506024403 10 334 4.8 16.1 0.00 0.00 0.00 85 1011.1
20260506024303 10 339 4.8 16.1 0.00 0.00 0.00 85 1010.8
20260506024116 10 343 4.8 16.1 0.00 0.00 0.00 85 1010.8
20260506024103 10 337 4.8 16.1 0.00 0.00 0.00 85 1011.0
20260506024004 10 333 3.2 12.9 0.00 0.00 0.00 85 1010.9
20260506023913 10 333 3.2 12.9 0.00 0.00 0.00 85 1010.9
20260506023803 10 333 3.2 11.3 0.00 0.00 0.00 85 1010.9
20260506023715 10 333 3.2 11.3 0.00 0.00 0.00 85 1010.9
20260506023603 10 329 3.2 11.3 0.00 0.00 0.00 85 1010.9
20260506023403 10 341 3.2 11.3 0.00 0.00 0.00 85 1010.9
20260506023303 10 339 3.2 11.3 0.00 0.00 0.00 85 1011.0
20260506023204 10 330 3.2 11.3 0.00 0.00 0.00 85 1010.8
20260506023104 10 327 3.2 11.3 0.00 0.00 0.00 85 1010.8
20260506023003 10 334 3.2 11.3 0.00 0.00 0.00 85 1010.8
20260506022904 10 347 3.2 11.3 0.00 0.00 0.00 85 1011.1
20260506022804 10 353 3.2 11.3 0.00 0.00 0.00 85 1011.0
20260506022703 10 358 3.2 11.3 0.00 0.00 0.00 85 1010.9
20260506022604 10 3 3.2 11.3 0.00 0.00 0.00 85 1011.0
20260506022503 10 9 3.2 11.3 0.00 0.00 0.00 85 1011.0
20260506022403 10 344 3.2 11.3 0.00 0.00 0.00 85 1010.9
20260506022305 10 359 3.2 14.5 0.00 0.00 0.00 85 1011.0
20260506022203 10 8 1.6 14.5 0.00 0.00 0.00 84 1011.0
20260506022103 10 352 3.2 14.5 0.00 0.00 0.00 84 1011.1
20260506022004 10 346 3.2 14.5 0.00 0.00 0.00 84 1011.1
20260506021915 10 346 3.2 14.5 0.00 0.00 0.00 84 1011.1
20260506021904 10 347 3.2 14.5 0.00 0.00 0.00 84 1010.9
20260506021803 10 335 3.2 14.5 0.00 0.00 0.00 84 1011.0
20260506021604 10 337 3.2 14.5 0.00 0.00 0.00 85 1010.9
20260506021503 10 334 4.8 14.5 0.00 0.00 0.00 84 1011.0
20260506021403 10 338 4.8 14.5 0.00 0.00 0.00 84 1011.1
20260506021303 10 336 4.8 14.5 0.00 0.00 0.00 84 1011.0
20260506021203 10 333 4.8 14.5 0.00 0.00 0.00 84 1010.9
20260506021103 10 349 4.8 14.5 0.00 0.00 0.00 84 1010.9
20260506021003 10 358 3.2 14.5 0.00 0.00 0.00 84 1010.7
20260506020916 10 358 3.2 14.5 0.00 0.00 0.00 84 1010.7
20260506020903 10 356 4.8 14.5 0.00 0.00 0.00 84 1011.0
20260506020804 10 2 3.2 14.5 0.00 0.00 0.00 84 1010.9
20260506020603 10 359 3.2 14.5 0.00 0.00 0.00 83 1011.0
20260506020515 10 359 3.2 14.5 0.00 0.00 0.00 83 1011.0
20260506020503 10 360 3.2 14.5 0.00 0.00 0.00 83 1010.9
20260506020403 10 360 3.2 14.5 0.00 0.00 0.00 83 1010.8
20260506020203 10 356 3.2 14.5 0.00 0.00 0.00 83 1011.1
20260506020103 10 347 3.2 14.5 0.00 0.00 0.00 83 1010.7
20260506020004 10 335 3.2 11.3 0.00 0.00 0.00 83 1011.1
20260506015903 10 342 3.2 11.3 0.00 0.00 0.00 83 1011.0
20260506015815 10 342 3.2 11.3 0.00 0.00 0.00 83 1011.0
20260506015803 10 321 3.2 11.3 0.00 0.00 0.00 83 1011.1
20260506015704 10 357 1.6 11.3 0.00 0.00 0.00 83 1011.1
20260506015503 10 342 1.6 11.3 0.00 0.00 0.00 83 1011.0
20260506015414 10 342 1.6 11.3 0.00 0.00 0.00 83 1011.0
20260506015404 10 5 1.6 11.3 0.00 0.00 0.00 82 1011.0
20260506015313 10 5 1.6 11.3 0.00 0.00 0.00 82 1011.0
20260506015306 10 36 3.2 11.3 0.00 0.00 0.00 82 1011.0
20260506015003 10 5 3.2 14.5 0.00 0.00 0.00 82 1011.0
20260506014903 10 357 3.2 14.5 0.00 0.00 0.00 82 1011.2
20260506014804 10 359 3.2 14.5 0.00 0.00 0.00 82 1010.9
20260506014704 10 3 3.2 14.5 0.00 0.00 0.00 82 1011.0
20260506014603 10 348 3.2 14.5 0.00 0.00 0.00 82 1011.1
20260506014504 10 359 3.2 14.5 0.00 0.00 0.00 82 1011.0
20260506014403 10 349 3.2 14.5 0.00 0.00 0.00 82 1010.9
20260506014304 10 344 3.2 14.5 0.00 0.00 0.00 82 1011.2
20260506014204 10 334 3.2 14.5 0.00 0.00 0.00 82 1011.0
20260506014104 10 330 3.2 14.5 0.00 0.00 0.00 82 1011.1
20260506014003 10 319 3.2 14.5 0.00 0.00 0.00 82 1011.0
20260506013904 10 314 3.2 9.7 0.00 0.00 0.00 82 1011.1
20260506013817 10 314 3.2 9.7 0.00 0.00 0.00 82 1011.1
20260506013803 10 284 3.2 9.7 0.00 0.00 0.00 82 1011.1
20260506013716 10 284 3.2 9.7 0.00 0.00 0.00 82 1011.1
20260506013703 10 310 3.2 9.7 0.00 0.00 0.00 82 1010.8
20260506013513 10 317 3.2 11.3 0.00 0.00 0.00 82 1011.0
20260506013403 10 18 3.2 19.3 0.00 0.00 0.00 82 1011.0
20260506013204 10 6 3.2 19.3 0.00 0.00 0.00 82 1011.1
20260506013103 10 11 3.2 19.3 0.00 0.00 0.00 82 1010.9
20260506013016 10 11 3.2 19.3 0.00 0.00 0.00 82 1010.9
20260506013003 10 9 3.2 19.3 0.00 0.00 0.00 82 1011.3
20260506012903 10 10 3.2 19.3 0.00 0.00 0.00 82 1010.9
20260506012703 10 28 3.2 19.3 0.00 0.00 0.00 82 1011.1
20260506012603 10 40 3.2 19.3 0.00 0.00 0.00 82 1011.0
20260506012503 10 45 3.2 19.3 0.00 0.00 0.00 82 1011.1
20260506012403 10 43 3.2 19.3 0.00 0.00 0.00 82 1010.9
20260506012307 10 21 3.2 19.3 0.00 0.00 0.00 82 1011.0
20260506012215 10 21 3.2 19.3 0.00 0.00 0.00 82 1011.0
20260506012203 10 37 3.2 14.5 0.00 0.00 0.00 82 1011.1
20260506012113 10 37 3.2 14.5 0.00 0.00 0.00 82 1011.1
20260506012103 10 15 3.2 14.5 0.00 0.00 0.00 82 1011.1
20260506011803 10 357 4.8 14.5 0.00 0.00 0.00 82 1011.1
20260506011703 10 347 4.8 14.5 0.00 0.00 0.00 82 1011.1
20260506011603 10 345 4.8 14.5 0.00 0.00 0.00 82 1011.1
20260506011503 10 339 4.8 14.5 0.00 0.00 0.00 82 1010.8
20260506011403 10 335 4.8 14.5 0.00 0.00 0.00 82 1011.0
20260506011303 10 338 3.2 14.5 0.00 0.00 0.00 82 1010.9
20260506011204 10 332 3.2 14.5 0.00 0.00 0.00 82 1011.2
20260506011114 10 332 3.2 14.5 0.00 0.00 0.00 82 1011.2
20260506011103 10 328 3.2 14.5 0.00 0.00 0.00 82 1011.2
20260506011004 10 326 3.2 14.5 0.00 0.00 0.00 82 1011.2
20260506010804 10 327 3.2 12.9 0.00 0.00 0.00 82 1011.1
20260506010713 10 327 3.2 12.9 0.00 0.00 0.00 82 1011.1
20260506010703 10 340 3.2 12.9 0.00 0.00 0.00 82 1011.0
20260506010617 10 340 3.2 12.9 0.00 0.00 0.00 82 1011.0
20260506010603 10 332 3.2 12.9 0.00 0.00 0.00 81 1011.1
20260506010303 10 331 3.2 11.3 0.00 0.00 0.00 81 1011.3
20260506010203 10 336 3.2 11.3 0.00 0.00 0.00 82 1011.0
20260506010103 10 21 3.2 11.3 0.00 0.00 0.00 81 1011.2
20260506010004 10 26 3.2 16.1 0.00 0.00 0.00 81 1011.1
20260506005903 10 337 3.2 16.1 0.00 0.00 0.00 81 1011.2
20260506005804 10 318 3.2 16.1 0.00 0.00 0.00 81 1011.3
20260506005714 10 318 3.2 16.1 0.00 0.00 0.00 81 1011.3
20260506005703 10 312 3.2 16.1 0.00 0.00 0.00 81 1011.1
20260506005613 10 312 3.2 16.1 0.00 0.00 0.00 81 1011.1
20260506005603 10 330 3.2 16.1 0.00 0.00 0.00 81 1011.3
20260506005305 10 358 3.2 16.1 0.00 0.00 0.00 81 1011.3
20260506005217 10 358 3.2 16.1 0.00 0.00 0.00 81 1011.3
20260506005203 10 41 3.2 16.1 0.00 0.00 0.00 81 1011.2
20260506005116 10 41 3.2 16.1 0.00 0.00 0.00 81 1011.2
20260506005103 10 350 3.2 16.1 0.00 0.00 0.00 81 1011.2
20260506004803 10 40 3.2 11.3 0.00 0.00 0.00 81 1011.2
20260506004703 10 56 3.2 11.3 0.00 0.00 0.00 81 1011.3
20260506004603 10 44 3.2 11.3 0.00 0.00 0.00 81 1011.4
20260506004504 10 38 3.2 11.3 0.00 0.00 0.00 81 1011.2
20260506004403 10 18 3.2 11.3 0.00 0.00 0.00 81 1011.2
20260506004315 10 18 3.2 11.3 0.00 0.00 0.00 81 1011.2
20260506004304 10 2 3.2 11.3 0.00 0.00 0.00 81 1011.2
20260506004203 10 359 3.2 11.3 0.00 0.00 0.00 81 1011.4
20260506004003 10 346 3.2 11.3 0.00 0.00 0.00 81 1011.3
20260506003903 10 349 3.2 11.3 0.00 0.00 0.00 81 1011.3
20260506003803 10 357 3.2 11.3 0.00 0.00 0.00 81 1011.2
20260506003703 10 338 3.2 11.3 0.00 0.00 0.00 81 1011.1
20260506003603 10 340 3.2 11.3 0.00 0.00 0.00 81 1011.4
20260506003503 10 309 3.2 11.3 0.00 0.00 0.00 81 1011.1
20260506003403 10 327 3.2 11.3 0.00 0.00 0.00 81 1011.1
20260506003303 10 348 3.2 11.3 0.00 0.00 0.00 81 1011.2
20260506003214 10 348 3.2 11.3 0.00 0.00 0.00 81 1011.2
20260506003203 10 351 3.2 11.3 0.00 0.00 0.00 81 1011.3
20260506003103 10 320 3.2 11.3 0.00 0.00 0.00 81 1011.2
20260506002903 10 341 3.2 9.7 0.00 0.00 0.00 81 1011.1
20260506002803 10 339 3.2 9.7 0.00 0.00 0.00 81 1011.3
20260506002703 10 346 3.2 9.7 0.00 0.00 0.00 81 1011.1
20260506002603 10 336 3.2 9.7 0.00 0.00 0.00 81 1011.2
20260506002503 10 354 3.2 12.9 0.00 0.00 0.00 81 1011.3
20260506002413 10 354 3.2 12.9 0.00 0.00 0.00 81 1011.3
20260506002403 10 344 3.2 12.9 0.00 0.00 0.00 81 1011.1
20260506002305 10 352 3.2 12.9 0.00 0.00 0.00 81 1011.1
20260506002103 10 356 3.2 12.9 0.00 0.00 0.00 81 1011.1
20260506002004 10 5 3.2 12.9 0.00 0.00 0.00 81 1011.4
20260506001903 10 359 3.2 12.9 0.00 0.00 0.00 81 1011.0
20260506001803 10 345 3.2 12.9 0.00 0.00 0.00 81 1011.2
20260506001703 10 352 3.2 12.9 0.00 0.00 0.00 80 1011.3
20260506001603 10 9 3.2 12.9 0.00 0.00 0.00 80 1011.4
20260506001503 10 355 3.2 12.9 0.00 0.00 0.00 81 1011.4
20260506001404 10 17 3.2 12.9 0.00 0.00 0.00 81 1011.3
20260506001312 10 17 3.2 12.9 0.00 0.00 0.00 81 1011.3
20260506001303 10 23 3.2 11.3 0.00 0.00 0.00 81 1011.3
20260506001203 10 10 3.2 11.3 0.00 0.00 0.00 80 1011.3
20260506001008 10 11 3.2 11.3 0.00 0.00 0.00 80 1011.2
20260506000917 10 357 3.2 11.3 0.00 0.00 0.00 80 1011.3
20260506000903 10 6 3.2 12.9 0.00 0.00 0.00 80 1011.4
20260506000815 10 6 3.2 12.9 0.00 0.00 0.00 80 1011.4
20260506000803 10 8 3.2 12.9 0.00 0.00 0.00 80 1011.3
20260506000714 10 8 3.2 12.9 0.00 0.00 0.00 80 1011.3
20260506000403 10 339 3.2 12.9 0.00 0.00 0.00 81 1011.3
20260506000303 10 325 3.2 12.9 0.00 0.00 0.00 81 1011.3
20260506000204 10 309 3.2 12.9 0.00 0.00 0.00 81 1011.4
20260506000014 10 309 3.2 12.9 0.00 0.00 0.00 81 1011.4
20260506000003 10 289 3.2 12.9 0.00 0.00 0.00 81 1011.2
20260505235903 10 275 3.2 12.9 0.00 0.00 0.00 81 1011.3
20260505235703 10 259 3.2 11.3 0.00 0.00 0.00 81 1011.3
20260505235603 10 280 3.2 12.9 0.00 0.00 0.00 81 1011.4
20260505235503 10 274 3.2 14.5 0.00 0.00 0.00 81 1011.3
20260505235403 10 291 3.2 14.5 0.00 0.00 0.00 81 1011.3
20260505235305 10 316 3.2 14.5 0.00 0.00 0.00 81 1011.3
20260505235203 10 310 3.2 14.5 0.00 0.00 0.00 81 1011.3
20260505235103 10 331 3.2 14.5 0.00 0.00 0.00 81 1011.2
20260505235004 10 2 3.2 14.5 0.00 0.00 0.00 81 1011.1
20260505234903 10 347 3.2 14.5 0.00 0.00 0.00 81 1011.4
20260505234803 10 335 3.2 14.5 0.00 0.00 0.00 81 1011.2
20260505234703 10 9 3.2 14.5 0.00 0.00 0.00 81 1011.3
20260505234603 10 54 3.2 14.5 0.00 0.00 0.00 81 1011.4
20260505234503 10 22 3.2 14.5 0.00 0.00 0.00 81 1011.3
20260505234404 10 12 3.2 14.5 0.00 0.00 0.00 81 1011.3
20260505234303 10 7 3.2 12.9 0.00 0.00 0.00 81 1011.3
20260505234203 10 4 3.2 12.9 0.00 0.00 0.00 81 1011.5
20260505234103 10 12 3.2 12.9 0.00 0.00 0.00 81 1011.2
20260505234003 10 343 3.2 12.9 0.00 0.00 0.00 81 1011.3
20260505233903 10 337 3.2 12.9 0.00 0.00 0.00 81 1011.3
20260505233803 10 339 3.2 11.3 0.00 0.00 0.00 82 1011.4
20260505233703 10 320 3.2 11.3 0.00 0.00 0.00 82 1011.2
20260505233603 10 319 3.2 11.3 0.00 0.00 0.00 81 1011.4
20260505233503 10 318 3.2 11.3 0.00 0.00 0.00 82 1011.3
20260505233418 10 318 3.2 11.3 0.00 0.00 0.00 82 1011.3
20260505233403 10 313 3.2 11.3 0.00 0.00 0.00 82 1011.5
20260505233303 10 304 3.2 11.3 0.00 0.00 0.00 82 1011.3
20260505233104 10 311 3.2 11.3 0.00 0.00 0.00 82 1011.2
20260505233003 10 20 3.2 11.3 0.00 0.00 0.00 82 1011.2
20260505232903 10 56 3.2 11.3 0.00 0.00 0.00 82 1011.3
20260505232803 10 67 3.2 11.3 0.00 0.00 0.00 82 1011.3
20260505232706 10 67 3.2 11.3 0.00 0.00 0.00 82 1011.3
20260505232603 10 63 3.2 11.3 0.00 0.00 0.00 82 1011.4
20260505232503 10 29 4.8 11.3 0.00 0.00 0.00 82 1011.2
20260505232403 10 343 4.8 11.3 0.00 0.00 0.00 82 1011.3
20260505232312 10 343 4.8 11.3 0.00 0.00 0.00 82 1011.3
20260505232305 10 324 4.8 11.3 0.00 0.00 0.00 82 1011.3
20260505232203 10 307 4.8 11.3 0.00 0.00 0.00 82 1011.2
20260505232003 10 298 4.8 14.5 0.00 0.00 0.00 82 1011.3
20260505231903 10 304 4.8 14.5 0.00 0.00 0.00 82 1011.2
20260505231803 10 323 4.8 14.5 0.00 0.00 0.00 82 1011.4
20260505231703 10 308 4.8 16.1 0.00 0.00 0.00 82 1011.4
20260505231603 10 292 4.8 16.1 0.00 0.00 0.00 83 1011.3
20260505231503 10 292 4.8 16.1 0.00 0.00 0.00 83 1011.2
20260505231403 10 300 3.2 16.1 0.00 0.00 0.00 83 1011.5
20260505231313 10 300 3.2 16.1 0.00 0.00 0.00 83 1011.5
20260505231303 10 291 3.2 16.1 0.00 0.00 0.00 83 1011.3
20260505231203 10 306 3.2 16.1 0.00 0.00 0.00 83 1011.3
20260505231014 10 315 3.2 16.1 0.00 0.00 0.00 83 1011.3
20260505231003 10 306 3.2 16.1 0.00 0.00 0.00 83 1011.3
20260505230912 10 306 3.2 16.1 0.00 0.00 0.00 83 1011.3
20260505230903 11 320 3.2 16.1 0.00 0.00 0.00 83 1011.3
20260505230603 11 321 3.2 16.1 0.00 0.00 0.00 83 1011.3
20260505230504 10 333 3.2 11.3 0.00 0.00 0.00 83 1011.2
20260505230404 11 347 3.2 11.3 0.00 0.00 0.00 83 1011.4
20260505230303 10 357 3.2 11.3 0.00 0.00 0.00 84 1011.5
20260505230203 11 340 3.2 11.3 0.00 0.00 0.00 84 1011.4
20260505230007 11 316 3.2 11.3 0.00 0.00 0.00 84 1011.3
20260505225903 11 314 3.2 11.3 0.00 0.00 0.00 84 1011.4
20260505225803 11 313 3.2 11.3 0.00 0.00 0.00 84 1011.4
20260505225704 11 351 3.2 11.3 0.00 0.00 0.00 84 1011.3
20260505225603 11 28 3.2 11.3 0.00 0.00 0.00 84 1011.5
20260505225503 11 33 3.2 11.3 0.00 0.00 0.00 84 1011.5
20260505225403 11 47 3.2 11.3 0.00 0.00 0.00 83 1011.3
20260505225305 11 42 3.2 11.3 0.00 0.00 0.00 83 1011.5
20260505225203 11 61 3.2 12.9 0.00 0.00 0.00 83 1011.5
20260505225103 11 94 3.2 12.9 0.00 0.00 0.00 83 1011.4
20260505225016 11 94 3.2 12.9 0.00 0.00 0.00 83 1011.4
20260505225003 11 64 3.2 12.9 0.00 0.00 0.00 83 1011.4
20260505224903 11 17 3.2 12.9 0.00 0.00 0.00 83 1011.4
20260505224703 10 167 3.2 12.9 0.00 0.00 0.00 83 1011.3
20260505224603 10 253 3.2 12.9 0.00 0.00 0.00 83 1011.6
20260505224514 10 253 3.2 12.9 0.00 0.00 0.00 83 1011.6
20260505224503 10 237 3.2 12.9 0.00 0.00 0.00 83 1011.5
20260505224403 10 241 3.2 12.9 0.00 0.00 0.00 83 1011.5
20260505224203 10 224 3.2 12.9 0.00 0.00 0.00 83 1011.6
20260505224103 10 287 4.8 11.3 0.00 0.00 0.00 83 1011.6
20260505224003 10 25 4.8 11.3 0.00 0.00 0.00 83 1011.5
20260505223903 10 36 4.8 11.3 0.00 0.00 0.00 83 1011.3
20260505223803 10 324 4.8 11.3 0.00 0.00 0.00 83 1011.6
20260505223703 10 80 4.8 11.3 0.00 0.00 0.00 83 1011.6
20260505223616 10 80 4.8 11.3 0.00 0.00 0.00 83 1011.6
20260505223603 10 67 4.8 11.3 0.00 0.00 0.00 83 1011.5
20260505223503 10 46 4.8 12.9 0.00 0.00 0.00 83 1011.5
20260505223303 10 352 4.8 12.9 0.00 0.00 0.00 83 1011.4
20260505223215 10 352 4.8 12.9 0.00 0.00 0.00 83 1011.4
20260505223203 10 307 4.8 12.9 0.00 0.00 0.00 83 1011.4
20260505223103 10 275 4.8 12.9 0.00 0.00 0.00 83 1011.4
20260505222903 10 236 3.2 12.9 0.00 0.00 0.00 83 1011.4
20260505222803 10 83 3.2 12.9 0.00 0.00 0.00 83 1011.5
20260505222703 10 91 3.2 12.9 0.00 0.00 0.00 83 1011.4
20260505222617 10 91 3.2 12.9 0.00 0.00 0.00 83 1011.4
20260505222603 10 159 4.8 12.9 0.00 0.00 0.00 83 1011.7
20260505222516 10 159 4.8 12.9 0.00 0.00 0.00 83 1011.7
20260505222503 10 144 4.8 12.9 0.00 0.00 0.00 83 1011.5
20260505222203 11 131 3.2 12.9 0.00 0.00 0.00 83 1011.6
20260505222103 11 118 3.2 12.9 0.00 0.00 0.00 83 1011.3
20260505222003 11 103 3.2 12.9 0.00 0.00 0.00 83 1011.4
20260505221903 11 117 3.2 12.9 0.00 0.00 0.00 83 1011.6
20260505221803 10 136 3.2 12.9 0.00 0.00 0.00 83 1011.4
20260505221703 10 248 3.2 12.9 0.00 0.00 0.00 83 1011.4
20260505221603 11 351 3.2 12.9 0.00 0.00 0.00 83 1011.6
20260505221517 11 351 3.2 12.9 0.00 0.00 0.00 83 1011.6
20260505221503 11 35 3.2 12.9 0.00 0.00 0.00 83 1011.5
20260505221415 11 35 3.2 12.9 0.00 0.00 0.00 83 1011.5
20260505221403 11 31 3.2 12.9 0.00 0.00 0.00 83 1011.5
20260505221212 11 54 3.2 12.9 0.00 0.00 0.00 83 1011.5
20260505221116 11 47 3.2 12.9 0.00 0.00 0.00 83 1011.6
20260505221103 11 38 3.2 12.9 0.00 0.00 0.00 83 1011.3
20260505220803 11 9 3.2 14.5 0.00 0.00 0.00 83 1011.5
20260505220703 11 38 3.2 14.5 0.00 0.00 0.00 82 1011.6
20260505220603 11 52 3.2 14.5 0.00 0.00 0.00 82 1011.4
20260505220503 11 52 3.2 14.5 0.00 0.00 0.00 82 1011.4
20260505220403 11 58 3.2 14.5 0.00 0.00 0.00 82 1011.6
20260505220303 11 48 3.2 14.5 0.00 0.00 0.00 82 1011.4
20260505220213 11 48 3.2 14.5 0.00 0.00 0.00 82 1011.4
20260505220203 11 79 3.2 14.5 0.00 0.00 0.00 82 1011.5
20260505220106 11 79 3.2 14.5 0.00 0.00 0.00 82 1011.5
20260505215903 11 100 3.2 14.5 0.00 0.00 0.00 82 1011.2
20260505215803 11 84 3.2 14.5 0.00 0.00 0.00 82 1011.4
20260505215716 11 84 3.2 14.5 0.00 0.00 0.00 82 1011.4
20260505215703 11 88 3.2 14.5 0.00 0.00 0.00 82 1011.5
20260505215603 11 94 3.2 14.5 0.00 0.00 0.00 81 1011.4
20260505215403 11 88 3.2 14.5 0.00 0.00 0.00 81 1011.4
20260505215305 11 89 3.2 14.5 0.00 0.00 0.00 81 1011.4
20260505215203 11 81 3.2 14.5 0.00 0.00 0.00 81 1011.4
20260505215113 11 81 3.2 14.5 0.00 0.00 0.00 81 1011.4
20260505215103 11 74 3.2 14.5 0.00 0.00 0.00 80 1011.6
20260505215003 11 87 3.2 14.5 0.00 0.00 0.00 80 1011.4
20260505214803 11 99 3.2 14.5 0.00 0.00 0.00 80 1011.6
20260505214704 11 90 3.2 14.5 0.00 0.00 0.00 80 1011.3
20260505214603 11 73 3.2 14.5 0.00 0.00 0.00 80 1011.4
20260505214503 11 81 3.2 11.3 0.00 0.00 0.00 79 1011.4
20260505214403 11 100 3.2 11.3 0.00 0.00 0.00 79 1011.3
20260505214316 11 100 3.2 11.3 0.00 0.00 0.00 79 1011.3
20260505214303 11 111 3.2 11.3 0.00 0.00 0.00 79 1011.5
20260505214203 11 129 3.2 11.3 0.00 0.00 0.00 79 1011.4
20260505214003 11 67 3.2 11.3 0.00 0.00 0.00 78 1011.6
20260505213903 11 96 3.2 11.3 0.00 0.00 0.00 78 1011.3
20260505213803 11 16 3.2 11.3 0.00 0.00 0.00 78 1011.4
20260505213713 11 16 3.2 11.3 0.00 0.00 0.00 78 1011.4
20260505213703 11 53 3.2 11.3 0.00 0.00 0.00 77 1011.3
20260505213604 11 35 3.2 11.3 0.00 0.00 0.00 77 1011.3
20260505213403 11 354 3.2 11.3 0.00 0.00 0.00 77 1011.4
20260505213303 11 339 3.2 11.3 0.00 0.00 0.00 76 1011.5
20260505213203 11 2 3.2 11.3 0.00 0.00 0.00 76 1011.5
20260505213103 11 346 3.2 11.3 0.00 0.00 0.00 76 1011.5
20260505213004 11 360 3.2 11.3 0.00 0.00 0.00 76 1011.3
20260505212903 11 6 3.2 11.3 0.00 0.00 0.00 76 1011.4
20260505212803 11 15 3.2 11.3 0.00 0.00 0.00 76 1011.5
20260505212703 11 11 3.2 14.5 0.00 0.00 0.00 75 1011.5
20260505212603 11 31 3.2 14.5 0.00 0.00 0.00 75 1011.5
20260505212516 11 31 3.2 14.5 0.00 0.00 0.00 75 1011.5
20260505212503 11 25 3.2 14.5 0.00 0.00 0.00 75 1011.6
20260505212404 11 4 3.2 14.5 0.00 0.00 0.00 75 1011.4
20260505212203 11 6 4.8 14.5 0.00 0.00 0.00 74 1011.3
20260505212103 11 19 3.2 14.5 0.00 0.00 0.00 74 1011.6
20260505212003 11 34 3.2 14.5 0.00 0.00 0.00 74 1011.5
20260505211903 11 34 3.2 14.5 0.00 0.00 0.00 74 1011.5
20260505211804 11 70 3.2 14.5 0.00 0.00 0.00 75 1011.5
20260505211703 11 62 3.2 14.5 0.00 0.00 0.00 75 1011.5
20260505211603 11 134 3.2 14.5 0.00 0.00 0.00 75 1011.5
20260505211503 11 144 3.2 9.7 0.00 0.00 0.00 75 1011.5
20260505211403 11 124 1.6 9.7 0.00 0.00 0.00 76 1011.5
20260505211303 11 100 1.6 9.7 0.00 0.00 0.00 76 1011.7
20260505211213 11 100 1.6 9.7 0.00 0.00 0.00 76 1011.7
20260505211204 11 111 1.6 9.7 0.00 0.00 0.00 76 1011.5
20260505211103 11 83 1.6 9.7 0.00 0.00 0.00 76 1011.6
20260505211015 11 83 1.6 9.7 0.00 0.00 0.00 76 1011.6
20260505210903 11 85 1.6 6.4 0.00 0.00 0.00 76 1011.5
20260505210812 11 85 1.6 6.4 0.00 0.00 0.00 76 1011.5
20260505210703 11 63 1.6 12.9 0.00 0.00 0.00 76 1011.5
20260505210504 11 23 1.6 12.9 0.00 0.00 0.00 76 1011.4
20260505210403 11 20 1.6 12.9 0.00 0.00 0.00 76 1011.4
20260505210304 11 34 1.6 12.9 0.00 0.00 0.00 77 1011.4
20260505210204 11 12 1.6 12.9 0.00 0.00 0.00 77 1011.2
20260505210003 11 8 3.2 12.9 0.00 0.00 0.00 77 1011.4
20260505205903 11 17 3.2 12.9 0.00 0.00 0.00 77 1011.4
20260505205803 11 31 3.2 12.9 0.00 0.00 0.00 77 1011.4
20260505205703 11 63 3.2 12.9 0.00 0.00 0.00 77 1011.3
20260505205603 11 79 3.2 11.3 0.00 0.00 0.00 77 1011.5
20260505205503 11 100 3.2 9.7 0.00 0.00 0.00 77 1011.3
20260505205403 11 105 1.6 9.7 0.00 0.00 0.00 77 1011.4
20260505205305 11 112 3.2 9.7 0.00 0.00 0.00 78 1011.3
20260505205203 11 100 3.2 9.7 0.00 0.00 0.00 78 1011.3
20260505205103 11 97 3.2 9.7 0.00 0.00 0.00 78 1011.5
20260505205003 11 95 3.2 9.7 0.00 0.00 0.00 78 1011.3
20260505204903 11 105 3.2 11.3 0.00 0.00 0.00 78 1011.3
20260505204803 11 113 3.2 11.3 0.00 0.00 0.00 78 1011.5
20260505204703 11 99 3.2 11.3 0.00 0.00 0.00 78 1011.4
20260505204603 10 110 3.2 11.3 0.00 0.00 0.00 78 1011.5
20260505204503 10 150 3.2 11.3 0.00 0.00 0.00 77 1011.4
20260505204403 10 145 3.2 11.3 0.00 0.00 0.00 78 1011.2
20260505204303 10 124 3.2 11.3 0.00 0.00 0.00 78 1011.5
20260505204203 10 133 3.2 11.3 0.00 0.00 0.00 78 1011.3
20260505204103 10 167 3.2 11.3 0.00 0.00 0.00 78 1011.3
20260505204013 10 167 3.2 11.3 0.00 0.00 0.00 78 1011.3
20260505204004 10 135 3.2 11.3 0.00 0.00 0.00 78 1011.3
20260505203903 10 72 3.2 11.3 0.00 0.00 0.00 78 1011.5
20260505203704 10 107 3.2 11.3 0.00 0.00 0.00 78 1011.3
20260505203604 10 2 3.2 12.9 0.00 0.00 0.00 79 1011.3
20260505203503 10 51 3.2 12.9 0.00 0.00 0.00 79 1011.4
20260505203403 11 4 3.2 12.9 0.00 0.00 0.00 79 1011.4
20260505203313 11 4 3.2 12.9 0.00 0.00 0.00 79 1011.4
20260505203303 11 354 3.2 12.9 0.00 0.00 0.00 80 1011.5
20260505203203 11 35 3.2 12.9 0.00 0.00 0.00 80 1011.3
20260505203004 10 71 3.2 12.9 0.00 0.00 0.00 80 1011.5
20260505202903 11 78 3.2 12.9 0.00 0.00 0.00 80 1011.3
20260505202803 11 80 3.2 12.9 0.00 0.00 0.00 80 1011.4
20260505202703 11 93 3.2 12.9 0.00 0.00 0.00 80 1011.4
20260505202603 11 97 3.2 12.9 0.00 0.00 0.00 80 1011.5
20260505202517 11 97 3.2 12.9 0.00 0.00 0.00 80 1011.5
20260505202503 11 87 3.2 12.9 0.00 0.00 0.00 80 1011.3
20260505202403 11 102 3.2 11.3 0.00 0.00 0.00 80 1011.5
20260505202212 11 97 3.2 11.3 0.00 0.00 0.00 80 1011.6
20260505202203 11 99 3.2 11.3 0.00 0.00 0.00 80 1011.5
20260505202103 11 98 1.6 11.3 0.00 0.00 0.00 80 1011.3
20260505201913 11 100 1.6 11.3 0.00 0.00 0.00 80 1011.2
20260505201903 10 112 1.6 11.3 0.00 0.00 0.00 80 1011.3
20260505201803 11 96 1.6 11.3 0.00 0.00 0.00 80 1011.3
20260505201603 11 109 1.6 11.3 0.00 0.00 0.00 80 1011.3
20260505201503 11 97 1.6 11.3 0.00 0.00 0.00 80 1011.3
20260505201416 11 97 1.6 11.3 0.00 0.00 0.00 80 1011.3
20260505201403 11 73 1.6 11.3 0.00 0.00 0.00 80 1011.2
20260505201303 11 19 1.6 11.3 0.00 0.00 0.00 80 1011.2
20260505201117 11 347 1.6 11.3 0.00 0.00 0.00 80 1011.2
20260505201103 11 329 3.2 11.3 0.00 0.00 0.00 80 1011.2
20260505201003 11 333 3.2 11.3 0.00 0.00 0.00 80 1011.1
20260505200914 11 333 3.2 11.3 0.00 0.00 0.00 80 1011.1
20260505200803 11 338 3.2 9.7 0.00 0.00 0.00 80 1011.1
20260505200615 11 337 3.2 9.7 0.00 0.00 0.00 80 1011.0
20260505200604 11 348 3.2 9.7 0.00 0.00 0.00 80 1011.1
20260505200503 11 349 3.2 9.7 0.00 0.00 0.00 80 1011.0
20260505200304 11 355 3.2 9.7 0.00 0.00 0.00 80 1011.2
20260505200203 11 360 1.6 9.7 0.00 0.00 0.00 80 1011.0
20260505200003 11 19 1.6 9.7 0.00 0.00 0.00 80 1011.1
20260505195904 11 4 1.6 9.7 0.00 0.00 0.00 80 1011.3
20260505195804 11 13 1.6 4.8 0.00 0.00 0.00 80 1011.1
20260505195703 11 11 1.6 4.8 0.00 0.00 0.00 80 1011.2
20260505195603 11 14 1.6 4.8 0.00 0.00 0.00 80 1011.2
20260505195515 11 14 1.6 4.8 0.00 0.00 0.00 80 1011.2
20260505195503 11 9 1.6 4.8 0.00 0.00 0.00 80 1011.2
20260505195403 11 13 1.6 4.8 0.00 0.00 0.00 80 1011.1
20260505195317 11 13 1.6 4.8 0.00 0.00 0.00 80 1011.1
20260505195215 11 14 1.6 6.4 0.00 0.00 0.00 80 1011.1
20260505195204 11 30 1.6 6.4 0.00 0.00 0.00 80 1011.0
20260505194903 11 56 1.6 6.4 0.00 0.00 0.00 80 1010.9
20260505194803 11 66 1.6 6.4 0.00 0.00 0.00 80 1010.9
20260505194703 11 77 1.6 6.4 0.00 0.00 0.00 80 1010.9
20260505194603 11 55 1.6 6.4 0.00 0.00 0.00 80 1011.0
20260505194503 11 64 1.6 9.7 0.00 0.00 0.00 80 1011.0
20260505194414 11 64 1.6 9.7 0.00 0.00 0.00 80 1011.0
20260505194404 11 92 3.2 9.7 0.00 0.00 0.00 80 1010.8
20260505194303 11 118 3.2 9.7 0.00 0.00 0.00 80 1010.9
20260505194115 11 136 3.2 9.7 0.00 0.00 0.00 80 1010.9
20260505194103 11 151 3.2 9.7 0.00 0.00 0.00 80 1011.0
20260505194003 11 166 3.2 9.7 0.00 0.00 0.00 80 1011.0
20260505193912 11 166 3.2 9.7 0.00 0.00 0.00 80 1011.0
20260505193804 11 182 3.2 9.7 0.00 0.00 0.00 80 1011.0
20260505193603 11 145 1.6 9.7 0.00 0.00 0.00 80 1011.0
20260505193504 11 135 3.2 9.7 0.00 0.00 0.00 80 1010.9
20260505193403 11 108 1.6 9.7 0.00 0.00 0.00 80 1010.8
20260505193314 11 108 1.6 9.7 0.00 0.00 0.00 80 1010.8
20260505193304 11 78 1.6 6.4 0.00 0.00 0.00 80 1010.8
20260505193217 11 78 1.6 6.4 0.00 0.00 0.00 80 1010.8
20260505193203 11 91 1.6 9.7 0.00 0.00 0.00 80 1010.8
20260505192903 11 50 1.6 9.7 0.00 0.00 0.00 80 1010.8
20260505192803 11 45 1.6 9.7 0.00 0.00 0.00 79 1010.8
20260505192703 11 45 1.6 9.7 0.00 0.00 0.00 79 1011.0
20260505192603 11 39 1.6 9.7 0.00 0.00 0.00 79 1010.9
20260505192503 11 54 1.6 9.7 0.00 0.00 0.00 79 1010.9
20260505192403 11 52 1.6 9.7 0.00 0.00 0.00 79 1010.8
20260505192305 11 50 1.6 9.7 0.00 0.00 0.00 79 1010.8
20260505192203 11 55 1.6 9.7 0.00 0.00 0.00 79 1010.7
20260505192103 11 74 1.6 9.7 0.00 0.00 0.00 79 1010.6
20260505192004 11 91 1.6 9.7 0.00 0.00 0.00 79 1010.7
20260505191903 11 101 1.6 9.7 0.00 0.00 0.00 79 1010.8
20260505191804 11 106 1.6 9.7 0.00 0.00 0.00 79 1010.8
20260505191706 11 106 1.6 9.7 0.00 0.00 0.00 79 1010.8
20260505191603 11 113 1.6 9.7 0.00 0.00 0.00 79 1010.7
20260505191504 11 110 1.6 9.7 0.00 0.00 0.00 78 1010.7
20260505191403 11 102 1.6 9.7 0.00 0.00 0.00 78 1010.8
20260505191303 11 104 1.6 9.7 0.00 0.00 0.00 78 1010.6
20260505191203 11 102 1.6 9.7 0.00 0.00 0.00 78 1010.7
20260505191103 11 109 1.6 9.7 0.00 0.00 0.00 78 1010.8
20260505191003 11 110 1.6 6.4 0.00 0.00 0.00 78 1010.6
20260505190915 11 110 1.6 6.4 0.00 0.00 0.00 78 1010.6
20260505190903 11 104 1.6 6.4 0.00 0.00 0.00 78 1010.5
20260505190803 11 99 1.6 6.4 0.00 0.00 0.00 78 1010.6
20260505190603 11 114 1.6 6.4 0.00 0.00 0.00 78 1010.8
20260505190503 11 111 1.6 6.4 0.00 0.00 0.00 78 1010.5
20260505190404 11 114 1.6 6.4 0.00 0.00 0.00 78 1010.7
20260505190304 11 114 1.6 6.4 0.00 0.00 0.00 78 1010.8
20260505190204 11 116 1.6 6.4 0.00 0.00 0.00 78 1010.7
20260505190103 11 128 1.6 6.4 0.00 0.00 0.00 77 1010.7
20260505190012 11 128 1.6 6.4 0.00 0.00 0.00 77 1010.7
20260505190004 11 129 1.6 6.4 0.00 0.00 0.00 77 1010.7
20260505185904 11 128 1.6 6.4 0.00 0.00 0.00 77 1010.8
20260505185704 11 109 1.6 6.4 0.00 0.00 0.00 77 1010.9
20260505185603 11 104 1.6 6.4 0.00 0.00 0.00 77 1010.7
20260505185503 11 136 1.6 9.7 0.00 0.00 0.00 77 1010.7
20260505185414 11 136 1.6 9.7 0.00 0.00 0.00 77 1010.7
20260505185403 11 132 1.6 9.7 0.00 0.00 0.00 77 1010.8
20260505185317 11 132 1.6 9.7 0.00 0.00 0.00 77 1010.8
20260505185305 11 108 1.6 9.7 0.00 0.00 0.00 77 1010.7
20260505185216 11 108 1.6 9.7 0.00 0.00 0.00 77 1010.7
20260505184903 11 88 1.6 9.7 0.00 0.00 0.00 76 1010.8
20260505184803 11 100 1.6 9.7 0.00 0.00 0.00 76 1010.6
20260505184703 11 111 1.6 9.7 0.00 0.00 0.00 76 1010.9
20260505184603 11 113 1.6 9.7 0.00 0.00 0.00 76 1010.7
20260505184516 11 113 1.6 9.7 0.00 0.00 0.00 76 1010.7
20260505184504 11 101 1.6 9.7 0.00 0.00 0.00 76 1010.8
20260505184415 11 101 1.6 9.7 0.00 0.00 0.00 76 1010.8
20260505184403 11 116 1.6 9.7 0.00 0.00 0.00 76 1010.7
20260505184103 11 124 1.6 6.4 0.00 0.00 0.00 76 1010.7
20260505184003 11 128 1.6 6.4 0.00 0.00 0.00 76 1010.7
20260505183903 11 133 1.6 6.4 0.00 0.00 0.00 76 1010.8
20260505183804 11 133 1.6 6.4 0.00 0.00 0.00 75 1010.7
20260505183703 11 125 1.6 6.4 0.00 0.00 0.00 75 1010.8
20260505183603 11 138 1.6 6.4 0.00 0.00 0.00 75 1010.7
20260505183503 11 126 1.6 9.7 0.00 0.00 0.00 75 1010.6
20260505183403 11 109 1.6 9.7 0.00 0.00 0.00 75 1010.8
20260505183303 11 92 1.6 9.7 0.00 0.00 0.00 75 1010.7
20260505183203 11 92 1.6 9.7 0.00 0.00 0.00 75 1010.6
20260505183104 11 86 1.6 9.7 0.00 0.00 0.00 75 1010.6
20260505183003 11 87 1.6 9.7 0.00 0.00 0.00 75 1010.7
20260505182914 11 87 1.6 9.7 0.00 0.00 0.00 75 1010.7
20260505182903 11 84 1.6 9.7 0.00 0.00 0.00 75 1010.5
20260505182803 11 84 1.6 11.3 0.00 0.00 0.00 74 1010.5
20260505182603 11 47 1.6 11.3 0.00 0.00 0.00 75 1010.7
20260505182503 11 44 1.6 11.3 0.00 0.00 0.00 75 1010.6
20260505182404 11 53 1.6 11.3 0.00 0.00 0.00 75 1010.7
20260505182305 11 49 1.6 11.3 0.00 0.00 0.00 74 1010.7
20260505182203 11 52 1.6 11.3 0.00 0.00 0.00 74 1010.6
20260505182103 11 42 1.6 11.3 0.00 0.00 0.00 74 1010.5
20260505182003 11 43 1.6 11.3 0.00 0.00 0.00 74 1010.7
20260505181903 11 41 1.6 11.3 0.00 0.00 0.00 74 1010.6
20260505181804 11 39 1.6 11.3 0.00 0.00 0.00 74 1010.5
20260505181703 12 61 1.6 11.3 0.00 0.00 0.00 74 1010.7
20260505181603 12 69 1.6 9.7 0.00 0.00 0.00 75 1010.6
20260505181503 12 73 1.6 4.8 0.00 0.00 0.00 75 1010.5
20260505181403 12 68 1.6 4.8 0.00 0.00 0.00 75 1010.8
20260505181316 12 68 1.6 4.8 0.00 0.00 0.00 75 1010.8
20260505181303 12 104 1.6 4.8 0.00 0.00 0.00 75 1010.6
20260505181215 12 104 1.6 4.8 0.00 0.00 0.00 75 1010.6
20260505181203 12 112 1.6 4.8 0.00 0.00 0.00 75 1010.6
20260505180903 12 153 1.6 4.8 0.00 0.00 0.00 74 1010.5
20260505180803 12 202 1.6 4.8 0.00 0.00 0.00 74 1010.6
20260505180703 12 258 1.6 4.8 0.00 0.00 0.00 74 1010.7
20260505180603 12 272 1.6 4.8 0.00 0.00 0.00 74 1010.6
20260505180503 12 237 1.6 6.4 0.00 0.00 0.00 74 1010.7
20260505180403 12 218 1.6 6.4 0.00 0.00 0.00 74 1010.7
20260505180303 12 244 1.6 6.4 0.00 0.00 0.00 74 1010.6
20260505180203 12 252 1.6 6.4 0.00 0.00 0.00 74 1010.7
20260505180114 12 252 1.6 6.4 0.00 0.00 0.00 74 1010.7
20260505180103 12 246 1.6 6.4 0.00 0.00 0.00 74 1010.6
20260505180004 12 279 1.6 6.4 0.00 0.00 0.00 74 1010.6
20260505175803 12 295 1.6 9.7 0.00 0.00 0.00 74 1010.7
20260505175703 12 41 1.6 9.7 0.00 0.00 0.00 74 1010.6
20260505175603 12 166 1.6 9.7 0.00 0.00 0.00 74 1010.7
20260505175503 12 77 1.6 9.7 0.00 0.00 0.00 74 1010.6
20260505175403 12 95 1.6 9.7 0.00 0.00 0.00 74 1010.8
20260505175305 12 90 1.6 9.7 0.00 0.00 0.00 74 1010.7
20260505175203 12 82 1.6 9.7 0.00 0.00 0.00 74 1010.5
20260505175103 12 67 1.6 9.7 0.00 0.00 0.00 73 1010.6
20260505175003 12 78 1.6 9.7 0.00 0.00 0.00 74 1010.4
20260505174903 12 76 1.6 9.7 0.00 0.00 0.00 74 1010.7
20260505174803 12 73 1.6 9.7 0.00 0.00 0.00 74 1010.6
20260505174703 12 68 1.6 9.7 0.00 0.00 0.00 74 1010.4
20260505174613 12 68 1.6 9.7 0.00 0.00 0.00 74 1010.4
20260505174603 12 60 1.6 9.7 0.00 0.00 0.00 74 1010.4
20260505174503 12 68 1.6 9.7 0.00 0.00 0.00 74 1010.6
20260505174304 12 71 1.6 9.7 0.00 0.00 0.00 74 1010.6
20260505174203 12 80 1.6 9.7 0.00 0.00 0.00 74 1010.6
20260505174103 12 88 1.6 9.7 0.00 0.00 0.00 74 1010.6
20260505174015 12 88 1.6 9.7 0.00 0.00 0.00 74 1010.6
20260505174003 12 88 1.6 9.7 0.00 0.00 0.00 73 1010.5
20260505173903 12 90 1.6 9.7 0.00 0.00 0.00 73 1010.5
20260505173703 12 103 1.6 6.4 0.00 0.00 0.00 73 1010.5
20260505173604 12 110 1.6 6.4 0.00 0.00 0.00 73 1010.6
20260505173503 12 112 1.6 6.4 0.00 0.00 0.00 73 1010.5
20260505173403 12 107 1.6 6.4 0.00 0.00 0.00 73 1010.7
20260505173303 12 101 1.6 6.4 0.00 0.00 0.00 73 1010.5
20260505173214 12 101 1.6 6.4 0.00 0.00 0.00 73 1010.5
20260505173203 12 95 1.6 6.4 0.00 0.00 0.00 73 1010.6
20260505173117 12 95 1.6 6.4 0.00 0.00 0.00 73 1010.6
20260505173103 12 100 1.6 6.4 0.00 0.00 0.00 73 1010.7
20260505172803 12 106 1.6 6.4 0.00 0.00 0.00 72 1010.7
20260505172704 12 99 1.6 6.4 0.00 0.00 0.00 72 1010.5
20260505172604 12 99 1.6 6.4 0.00 0.00 0.00 72 1010.4
20260505172503 12 83 1.6 6.4 0.00 0.00 0.00 73 1010.4
20260505172403 12 81 1.6 6.4 0.00 0.00 0.00 73 1010.5
20260505172316 12 81 1.6 6.4 0.00 0.00 0.00 73 1010.5
20260505172305 12 88 1.6 6.4 0.00 0.00 0.00 73 1010.6
20260505172203 12 118 1.6 6.4 0.00 0.00 0.00 73 1010.5
20260505172004 12 105 1.6 6.4 0.00 0.00 0.00 73 1010.5
20260505171903 12 99 1.6 6.4 0.00 0.00 0.00 72 1010.6
20260505171803 12 101 1.6 9.7 0.00 0.00 0.00 72 1010.5
20260505171717 12 101 1.6 9.7 0.00 0.00 0.00 72 1010.5
20260505171703 12 114 1.6 9.7 0.00 0.00 0.00 72 1010.5
20260505171603 12 105 1.6 9.7 0.00 0.00 0.00 72 1010.4
20260505171413 12 104 3.2 9.7 0.00 0.00 0.00 72 1010.8
20260505171403 12 102 3.2 9.7 0.00 0.00 0.00 72 1010.6
20260505171303 12 95 3.2 9.7 0.00 0.00 0.00 72 1010.6
20260505171103 12 92 1.6 9.7 0.00 0.00 0.00 72 1010.5
20260505171003 12 89 3.2 9.7 0.00 0.00 0.00 72 1010.6
20260505170904 12 93 3.2 9.7 0.00 0.00 0.00 72 1010.8
20260505170803 13 88 1.6 9.7 0.00 0.00 0.00 72 1010.6
20260505170704 12 82 3.2 9.7 0.00 0.00 0.00 72 1010.6
20260505170603 12 84 1.6 9.7 0.00 0.00 0.00 72 1010.4
20260505170503 13 89 1.6 9.7 0.00 0.00 0.00 72 1010.4
20260505170404 13 85 1.6 9.7 0.00 0.00 0.00 72 1010.6
20260505170303 13 77 1.6 9.7 0.00 0.00 0.00 72 1010.4
20260505170203 12 75 1.6 6.4 0.00 0.00 0.00 72 1010.7
20260505170115 12 75 1.6 6.4 0.00 0.00 0.00 72 1010.7
20260505170003 12 62 1.6 6.4 0.00 0.00 0.00 72 1010.5
20260505165803 12 54 1.6 4.8 0.00 0.00 0.00 73 1010.6
20260505165703 12 53 1.6 6.4 0.00 0.00 0.00 73 1010.7
20260505165603 12 50 1.6 6.4 0.00 0.00 0.00 73 1010.7
20260505165503 12 57 1.6 6.4 0.00 0.00 0.00 73 1010.6
20260505165404 12 71 1.6 6.4 0.00 0.00 0.00 72 1010.6
20260505165305 12 87 1.6 6.4 0.00 0.00 0.00 72 1010.6
20260505165217 12 87 1.6 6.4 0.00 0.00 0.00 72 1010.6
20260505165203 12 93 3.2 6.4 0.00 0.00 0.00 72 1010.6
20260505165103 12 91 3.2 6.4 0.00 0.00 0.00 72 1010.6
20260505164903 12 95 3.2 6.4 0.00 0.00 0.00 73 1010.7
20260505164803 12 101 1.6 6.4 0.00 0.00 0.00 73 1010.6
20260505164703 12 108 1.6 6.4 0.00 0.00 0.00 73 1010.7
20260505164604 12 111 1.6 6.4 0.00 0.00 0.00 73 1010.6
20260505164503 12 100 1.6 6.4 0.00 0.00 0.00 73 1010.7
20260505164403 12 85 1.6 6.4 0.00 0.00 0.00 73 1010.7
20260505164303 12 72 1.6 6.4 0.00 0.00 0.00 73 1010.5
20260505164206 12 72 1.6 6.4 0.00 0.00 0.00 73 1010.5
20260505164117 12 53 1.6 6.4 0.00 0.00 0.00 73 1010.5
20260505164103 12 69 1.6 6.4 0.00 0.00 0.00 73 1010.7
20260505164004 12 81 1.6 6.4 0.00 0.00 0.00 73 1010.5
20260505163803 12 84 1.6 6.4 0.00 0.00 0.00 73 1010.5
20260505163703 12 77 1.6 6.4 0.00 0.00 0.00 73 1010.5
20260505163604 12 84 1.6 4.8 0.00 0.00 0.00 73 1010.6
20260505163503 12 87 1.6 4.8 0.00 0.00 0.00 73 1010.7
20260505163404 12 97 1.6 4.8 0.00 0.00 0.00 72 1010.7
20260505163303 12 101 1.6 6.4 0.00 0.00 0.00 73 1010.9
20260505163203 12 105 1.6 6.4 0.00 0.00 0.00 73 1010.8
20260505163103 12 102 1.6 6.4 0.00 0.00 0.00 73 1010.7
20260505163016 12 102 1.6 6.4 0.00 0.00 0.00 73 1010.7
20260505163003 12 99 1.6 6.4 0.00 0.00 0.00 73 1010.7
20260505162915 12 99 1.6 6.4 0.00 0.00 0.00 73 1010.7
20260505162903 12 94 1.6 6.4 0.00 0.00 0.00 73 1010.7
20260505162604 12 60 1.6 6.4 0.00 0.00 0.00 72 1010.7
20260505162503 12 46 1.6 6.4 0.00 0.00 0.00 72 1010.8
20260505162403 12 44 1.6 6.4 0.00 0.00 0.00 72 1010.5
20260505162317 12 44 1.6 6.4 0.00 0.00 0.00 72 1010.5
20260505162306 12 43 1.6 6.4 0.00 0.00 0.00 72 1010.4
20260505162204 12 45 1.6 6.4 0.00 0.00 0.00 72 1010.8
20260505162003 12 35 1.6 4.8 0.00 0.00 0.00 72 1010.5
20260505161903 12 48 1.6 4.8 0.00 0.00 0.00 72 1010.8
20260505161804 12 61 1.6 4.8 0.00 0.00 0.00 72 1010.3
20260505161713 12 61 1.6 4.8 0.00 0.00 0.00 72 1010.3
20260505161703 12 75 1.6 4.8 0.00 0.00 0.00 72 1010.5
20260505161603 12 82 3.2 4.8 0.00 0.00 0.00 72 1010.5
20260505161403 12 95 3.2 6.4 0.00 0.00 0.00 71 1010.7
20260505161312 12 95 3.2 6.4 0.00 0.00 0.00 71 1010.7
20260505161303 12 96 3.2 6.4 0.00 0.00 0.00 71 1010.7
20260505161203 13 92 3.2 6.4 0.00 0.00 0.00 72 1010.6
20260505161115 13 92 3.2 6.4 0.00 0.00 0.00 72 1010.6
20260505161004 13 92 3.2 6.4 0.00 0.00 0.00 72 1010.6
20260505160804 13 65 3.2 6.4 0.00 0.00 0.00 72 1010.6
20260505160703 13 60 3.2 6.4 0.00 0.00 0.00 72 1010.6
20260505160603 13 60 3.2 6.4 0.00 0.00 0.00 72 1010.7
20260505160516 13 60 3.2 6.4 0.00 0.00 0.00 72 1010.7
20260505160503 13 61 3.2 6.4 0.00 0.00 0.00 72 1010.5
20260505160406 13 61 3.2 6.4 0.00 0.00 0.00 72 1010.5
20260505160203 13 50 3.2 6.4 0.00 0.00 0.00 72 1010.6
20260505153304 13 102 1.6 11.3 0.00 0.00 0.00 74 1010.9
20260505153215 13 102 1.6 11.3 0.00 0.00 0.00 74 1010.9
20260505153204 13 103 3.2 11.3 0.00 0.00 0.00 74 1010.7
20260505153103 13 102 3.2 11.3 0.00 0.00 0.00 75 1011.0
20260505152903 13 92 1.6 11.3 0.00 0.00 0.00 74 1010.9
20260505152804 13 82 3.2 11.3 0.00 0.00 0.00 74 1010.9
20260505152703 13 89 1.6 11.3 0.00 0.00 0.00 75 1011.0
20260505152603 13 71 1.6 9.7 0.00 0.00 0.00 75 1010.9
20260505152503 13 68 3.2 9.7 0.00 0.00 0.00 75 1010.9
20260505152403 13 71 3.2 9.7 0.00 0.00 0.00 74 1010.9
20260505152305 13 71 3.2 9.7 0.00 0.00 0.00 74 1010.9
20260505152203 13 57 3.2 9.7 0.00 0.00 0.00 75 1010.9
20260505152103 13 43 3.2 9.7 0.00 0.00 0.00 75 1011.0
20260505152013 13 43 3.2 9.7 0.00 0.00 0.00 75 1011.0
20260505152003 13 43 3.2 9.7 0.00 0.00 0.00 75 1010.8
20260505151903 13 39 3.2 9.7 0.00 0.00 0.00 75 1011.0
20260505151703 13 51 3.2 9.7 0.00 0.00 0.00 75 1010.9
20260505151603 13 59 3.2 9.7 0.00 0.00 0.00 75 1011.0
20260505151503 13 74 3.2 9.7 0.00 0.00 0.00 75 1011.0
20260505151404 13 61 3.2 9.7 0.00 0.00 0.00 75 1011.0
20260505151303 13 66 3.2 9.7 0.00 0.00 0.00 75 1011.0
20260505151217 13 66 3.2 9.7 0.00 0.00 0.00 75 1011.0
20260505151203 13 80 3.2 9.7 0.00 0.00 0.00 75 1010.8
20260505151103 13 90 1.6 9.7 0.00 0.00 0.00 75 1011.0
20260505150903 13 107 1.6 11.3 0.00 0.00 0.00 76 1011.0
20260505150803 13 106 3.2 11.3 0.00 0.00 0.00 75 1011.0
20260505150704 13 113 3.2 11.3 0.00 0.00 0.00 75 1011.1
20260505150603 13 120 3.2 11.3 0.00 0.00 0.00 75 1010.9
20260505150504 13 106 3.2 11.3 0.00 0.00 0.00 75 1011.1
20260505150415 13 106 3.2 11.3 0.00 0.00 0.00 75 1011.1
20260505150403 13 113 3.2 11.3 0.00 0.00 0.00 75 1011.0
20260505150304 13 103 3.2 11.3 0.00 0.00 0.00 75 1011.0
20260505150218 13 103 3.2 11.3 0.00 0.00 0.00 75 1011.0
20260505150116 13 93 3.2 11.3 0.00 0.00 0.00 75 1011.1
20260505140603 13 65 3.2 11.3 0.00 0.00 0.00 73 1011.6
20260505140503 13 81 3.2 11.3 0.00 0.00 0.00 73 1011.3
20260505140404 13 99 3.2 11.3 0.00 0.00 0.00 73 1011.3
20260505140303 13 66 3.2 11.3 0.00 0.00 0.00 73 1011.3
20260505140203 13 72 3.2 11.3 0.00 0.00 0.00 73 1011.2